Wetterdaten: Mittwoch, 19.03.2014
Datum Zeit Temp. Aussen +5cm Feuchte Auss Luftdruck Regen Sonnenschein Regendauer UV Solar Windben
19.03.2014 00:00 8,4 C 7,2 C 95 % 1015,0 hPa 0,0 l/m 0 min 2 min 0,0 UV-I 0 W/m 5,1 km/h (1 Bft)
19.03.2014 00:02 8,4 C 7,2 C 95 % 1015,0 hPa 0,0 l/m 0 min 0 min 0,0 UV-I 0 W/m 12,9 km/h (3 Bft)
19.03.2014 00:06 8,4 C 6,7 C 95 % 1015,1 hPa 0,0 l/m 0 min 2 min 0,0 UV-I 0 W/m 23,2 km/h (4 Bft)
19.03.2014 00:08 8,4 C 6,7 C 95 % 1015,2 hPa 0,0 l/m 0 min 0 min 0,0 UV-I 0 W/m 10,3 km/h (2 Bft)
19.03.2014 00:10 8,4 C 6,7 C 95 % 1015,2 hPa 0,0 l/m 0 min 0 min 0,0 UV-I 0 W/m 12,9 km/h (3 Bft)
19.03.2014 00:12 8,4 C 6,7 C 96 % 1015,1 hPa 0,0 l/m 0 min 0 min 0,0 UV-I 0 W/m 15,4 km/h (3 Bft)
19.03.2014 00:14 8,4 C 6,7 C 96 % 1015,1 hPa 0,0 l/m 0 min 0 min 0,0 UV-I 0 W/m 12,9 km/h (3 Bft)
19.03.2014 00:16 8,4 C 6,7 C 96 % 1015,1 hPa 0,0 l/m 0 min 0 min 0,0 UV-I 0 W/m 10,3 km/h (2 Bft)
19.03.2014 00:18 8,4 C 6,7 C 96 % 1015,1 hPa 0,0 l/m 0 min 0 min 0,0 UV-I 0 W/m 18,0 km/h (3 Bft)
19.03.2014 00:20 8,4 C 6,7 C 96 % 1015,2 hPa 0,0 l/m 0 min 0 min 0,0 UV-I 0 W/m 33,5 km/h (5 Bft)
19.03.2014 00:22 8,4 C 6,7 C 96 % 1015,2 hPa 0,0 l/m 0 min 2 min 0,0 UV-I 0 W/m 33,5 km/h (5 Bft)
19.03.2014 00:24 8,4 C 6,7 C 96 % 1015,2 hPa 0,0 l/m 0 min 2 min 0,0 UV-I 0 W/m 15,4 km/h (3 Bft)
19.03.2014 00:26 8,4 C 7,2 C 96 % 1015,2 hPa 0,0 l/m 0 min 2 min 0,0 UV-I 0 W/m 18,0 km/h (3 Bft)
19.03.2014 00:28 8,5 C 7,2 C 96 % 1015,2 hPa 0,0 l/m 0 min 2 min 0,0 UV-I 0 W/m 20,6 km/h (4 Bft)
19.03.2014 00:30 8,5 C 7,2 C 96 % 1015,2 hPa 0,0 l/m 0 min 2 min 0,0 UV-I 0 W/m 20,6 km/h (4 Bft)
19.03.2014 00:32 8,6 C 7,2 C 96 % 1015,2 hPa 0,0 l/m 0 min 2 min 0,0 UV-I 0 W/m 33,5 km/h (5 Bft)
19.03.2014 00:34 8,6 C 7,2 C 96 % 1015,3 hPa 0,0 l/m 0 min 2 min 0,0 UV-I 0 W/m 7,7 km/h (2 Bft)
19.03.2014 00:36 8,6 C 7,2 C 96 % 1015,3 hPa 0,0 l/m 0 min 2 min 0,0 UV-I 0 W/m 15,4 km/h (3 Bft)
19.03.2014 00:38 8,6 C 7,2 C 96 % 1015,4 hPa 0,0 l/m 0 min 2 min 0,0 UV-I 0 W/m 23,2 km/h (4 Bft)
19.03.2014 00:40 8,6 C 7,2 C 95 % 1015,4 hPa 0,0 l/m 0 min 2 min 0,0 UV-I 0 W/m 28,3 km/h (4 Bft)
19.03.2014 00:42 8,6 C 7,2 C 95 % 1015,3 hPa 0,0 l/m 0 min 0 min 0,0 UV-I 0 W/m 25,7 km/h (4 Bft)
19.03.2014 00:44 8,6 C 7,2 C 95 % 1015,3 hPa 0,0 l/m 0 min 0 min 0,0 UV-I 0 W/m 12,9 km/h (3 Bft)
19.03.2014 00:46 8,6 C 7,2 C 95 % 1015,5 hPa 0,0 l/m 0 min 2 min 0,0 UV-I 0 W/m 23,2 km/h (4 Bft)
19.03.2014 00:48 8,6 C 7,2 C 95 % 1015,5 hPa 0,0 l/m 0 min 2 min 0,0 UV-I 0 W/m 18,0 km/h (3 Bft)
19.03.2014 00:50 8,7 C 7,2 C 95 % 1015,5 hPa 0,0 l/m 0 min 2 min 0,0 UV-I 0 W/m 23,2 km/h (4 Bft)
19.03.2014 00:52 8,7 C 7,2 C 95 % 1015,4 hPa 0,0 l/m 0 min 2 min 0,0 UV-I 0 W/m 15,4 km/h (3 Bft)
19.03.2014 00:54 8,7 C 7,2 C 95 % 1015,5 hPa 0,0 l/m 0 min 2 min 0,0 UV-I 0 W/m 18,0 km/h (3 Bft)
19.03.2014 00:56 8,7 C 7,2 C 95 % 1015,7 hPa 0,0 l/m 0 min 2 min 0,0 UV-I 0 W/m 18,0 km/h (3 Bft)
19.03.2014 00:58 8,7 C 7,2 C 95 % 1015,7 hPa 0,0 l/m 0 min 2 min 0,0 UV-I 0 W/m 18,0 km/h (3 Bft)
19.03.2014 01:00 8,7 C 7,2 C 95 % 1015,6 hPa 0,0 l/m 0 min 0 min 0,0 UV-I 0 W/m 15,4 km/h (3 Bft)
19.03.2014 01:03 8,7 C 7,2 C 95 % 1015,7 hPa 0,0 l/m 0 min 0 min 0,0 UV-I 0 W/m 12,9 km/h (3 Bft)
19.03.2014 01:04 8,7 C 7,2 C 95 % 1015,7 hPa 0,0 l/m 0 min 0 min 0,0 UV-I 0 W/m 20,6 km/h (4 Bft)
19.03.2014 01:06 8,7 C 7,2 C 95 % 1015,7 hPa 0,0 l/m 0 min 0 min 0,0 UV-I 0 W/m 12,9 km/h (3 Bft)
19.03.2014 01:08 8,7 C 7,2 C 95 % 1015,7 hPa 0,0 l/m 0 min 0 min 0,0 UV-I 0 W/m 15,4 km/h (3 Bft)
19.03.2014 01:10 8,7 C 7,2 C 96 % 1015,7 hPa 0,0 l/m 0 min 0 min 0,0 UV-I 0 W/m 12,9 km/h (3 Bft)
19.03.2014 01:12 8,7 C 7,2 C 96 % 1015,8 hPa 0,0 l/m 0 min 2 min 0,0 UV-I 0 W/m 23,2 km/h (4 Bft)
19.03.2014 01:14 8,7 C 7,2 C 96 % 1015,8 hPa 0,0 l/m 0 min 2 min 0,0 UV-I 0 W/m 20,6 km/h (4 Bft)
19.03.2014 01:16 8,7 C 7,2 C 96 % 1015,8 hPa 0,0 l/m 0 min 2 min 0,0 UV-I 0 W/m 18,0 km/h (3 Bft)
19.03.2014 01:18 8,7 C 7,2 C 96 % 1015,8 hPa 0,0 l/m 0 min 0 min 0,0 UV-I 0 W/m 20,6 km/h (4 Bft)
19.03.2014 01:20 8,7 C 7,2 C 96 % 1015,9 hPa 0,0 l/m 0 min 2 min 0,0 UV-I 0 W/m 20,6 km/h (4 Bft)
19.03.2014 01:22 8,8 C 7,2 C 96 % 1016,0 hPa 0,0 l/m 0 min 0 min 0,0 UV-I 0 W/m 15,4 km/h (3 Bft)
19.03.2014 01:24 8,8 C 7,2 C 95 % 1016,1 hPa 0,0 l/m 0 min 2 min 0,0 UV-I 0 W/m 15,4 km/h (3 Bft)
19.03.2014 01:26 8,8 C 7,2 C 95 % 1016,1 hPa 0,0 l/m 0 min 0 min 0,0 UV-I 0 W/m 10,3 km/h (2 Bft)
19.03.2014 01:28 8,8 C 7,2 C 95 % 1016,2 hPa 0,0 l/m 0 min 0 min 0,0 UV-I 0 W/m 12,9 km/h (3 Bft)
19.03.2014 01:30 8,8 C 7,2 C 95 % 1016,2 hPa 0,0 l/m 0 min 0 min 0,0 UV-I 0 W/m 10,3 km/h (2 Bft)
19.03.2014 01:32 8,8 C 7,2 C 95 % 1016,2 hPa 0,0 l/m 0 min 0 min 0,0 UV-I 0 W/m 15,4 km/h (3 Bft)
19.03.2014 01:34 8,8 C 7,2 C 95 % 1016,3 hPa 0,0 l/m 0 min 2 min 0,0 UV-I 0 W/m 23,2 km/h (4 Bft)
19.03.2014 01:36 8,8 C 7,2 C 95 % 1016,3 hPa 0,0 l/m 0 min 0 min 0,0 UV-I 0 W/m 18,0 km/h (3 Bft)
19.03.2014 01:38 8,8 C 7,2 C 95 % 1016,3 hPa 0,0 l/m 0 min 0 min 0,0 UV-I 0 W/m 15,4 km/h (3 Bft)
19.03.2014 01:40 8,8 C 7,2 C 95 % 1016,3 hPa 0,0 l/m 0 min 2 min 0,0 UV-I 0 W/m 15,4 km/h (3 Bft)
19.03.2014 01:42 8,8 C 7,2 C 95 % 1016,4 hPa 0,0 l/m 0 min 2 min 0,0 UV-I 0 W/m 18,0 km/h (3 Bft)
19.03.2014 01:44 8,8 C 7,2 C 95 % 1016,4 hPa 0,0 l/m 0 min 2 min 0,0 UV-I 0 W/m 28,3 km/h (4 Bft)
19.03.2014 01:46 8,8 C 7,2 C 95 % 1016,5 hPa 0,0 l/m 0 min 2 min 0,0 UV-I 0 W/m 23,2 km/h (4 Bft)
19.03.2014 01:48 8,8 C 7,2 C 95 % 1016,5 hPa 0,0 l/m 0 min 2 min 0,0 UV-I 0 W/m 25,7 km/h (4 Bft)
19.03.2014 01:50 8,9 C 7,2 C 95 % 1016,5 hPa 0,0 l/m 0 min 0 min 0,0 UV-I 0 W/m 18,0 km/h (3 Bft)
19.03.2014 01:52 8,9 C 7,2 C 95 % 1016,5 hPa 0,0 l/m 0 min 2 min 0,0 UV-I 0 W/m 25,7 km/h (4 Bft)
19.03.2014 01:54 8,9 C 7,2 C 95 % 1016,5 hPa 0,0 l/m 0 min 2 min 0,0 UV-I 0 W/m 20,6 km/h (4 Bft)
19.03.2014 01:56 8,9 C 7,2 C 95 % 1016,5 hPa 0,0 l/m 0 min 0 min 0,0 UV-I 0 W/m 23,2 km/h (4 Bft)
19.03.2014 01:58 8,9 C 7,2 C 95 % 1016,6 hPa 0,0 l/m 0 min 0 min 0,0 UV-I 0 W/m 18,0 km/h (3 Bft)
19.03.2014 02:00 8,9 C 7,2 C 95 % 1016,6 hPa 0,0 l/m 0 min 0 min 0,0 UV-I 0 W/m 15,4 km/h (3 Bft)
19.03.2014 02:02 8,9 C 7,2 C 95 % 1016,7 hPa 0,0 l/m 0 min 0 min 0,0 UV-I 0 W/m 12,9 km/h (3 Bft)
19.03.2014 02:06 8,9 C 7,2 C 94 % 1016,8 hPa 0,0 l/m 0 min 0 min 0,0 UV-I 0 W/m 18,0 km/h (3 Bft)
19.03.2014 02:08 8,9 C 7,2 C 94 % 1016,9 hPa 0,0 l/m 0 min 0 min 0,0 UV-I 0 W/m 18,0 km/h (3 Bft)
19.03.2014 02:10 8,9 C 7,2 C 94 % 1016,9 hPa 0,0 l/m 0 min 0 min 0,0 UV-I 0 W/m 18,0 km/h (3 Bft)
19.03.2014 02:12 8,9 C 7,2 C 94 % 1017,0 hPa 0,0 l/m 0 min 0 min 0,0 UV-I 0 W/m 15,4 km/h (3 Bft)
19.03.2014 02:14 9,0 C 7,2 C 94 % 1017,1 hPa 0,0 l/m 0 min 0 min 0,0 UV-I 0 W/m 12,9 km/h (3 Bft)
19.03.2014 02:16 9,0 C 7,2 C 94 % 1017,1 hPa 0,0 l/m 0 min 0 min 0,0 UV-I 0 W/m 15,4 km/h (3 Bft)
19.03.2014 02:18 9,0 C 7,2 C 94 % 1017,1 hPa 0,0 l/m 0 min 0 min 0,0 UV-I 0 W/m 12,9 km/h (3 Bft)
19.03.2014 02:20 9,0 C 7,2 C 94 % 1017,2 hPa 0,0 l/m 0 min 0 min 0,0 UV-I 0 W/m 12,9 km/h (3 Bft)
19.03.2014 02:22 9,0 C 7,2 C 94 % 1017,3 hPa 0,0 l/m 0 min 0 min 0,0 UV-I 0 W/m 20,6 km/h (4 Bft)
19.03.2014 02:24 9,0 C 7,2 C 93 % 1017,2 hPa 0,0 l/m 0 min 0 min 0,0 UV-I 0 W/m 25,7 km/h (4 Bft)
19.03.2014 02:26 9,1 C 7,2 C 93 % 1017,2 hPa 0,0 l/m 0 min 0 min 0,0 UV-I 0 W/m 23,2 km/h (4 Bft)
19.03.2014 02:28 9,1 C 7,2 C 93 % 1017,3 hPa 0,0 l/m 0 min 0 min 0,0 UV-I 0 W/m 2,6 km/h (1 Bft)
19.03.2014 02:30 9,1 C 7,2 C 93 % 1017,3 hPa 0,0 l/m 0 min 0 min 0,0 UV-I 0 W/m 20,6 km/h (4 Bft)
19.03.2014 02:32 9,1 C 7,2 C 93 % 1017,3 hPa 0,0 l/m 0 min 0 min 0,0 UV-I 0 W/m 36,0 km/h (5 Bft)
19.03.2014 02:34 9,1 C 7,2 C 93 % 1017,3 hPa 0,0 l/m 0 min 0 min 0,0 UV-I 0 W/m 25,7 km/h (4 Bft)
19.03.2014 02:36 9,1 C 7,2 C 92 % 1017,4 hPa 0,0 l/m 0 min 0 min 0,0 UV-I 0 W/m 12,9 km/h (3 Bft)
19.03.2014 02:38 9,1 C 7,2 C 92 % 1017,4 hPa 0,0 l/m 0 min 0 min 0,0 UV-I 0 W/m 20,6 km/h (4 Bft)
19.03.2014 02:40 9,1 C 7,2 C 92 % 1017,4 hPa 0,0 l/m 0 min 0 min 0,0 UV-I 0 W/m 18,0 km/h (3 Bft)
19.03.2014 02:42 9,1 C 7,2 C 92 % 1017,4 hPa 0,0 l/m 0 min 0 min 0,0 UV-I 0 W/m 25,7 km/h (4 Bft)
19.03.2014 02:44 9,1 C 7,2 C 92 % 1017,4 hPa 0,0 l/m 0 min 0 min 0,0 UV-I 0 W/m 12,9 km/h (3 Bft)
19.03.2014 02:46 9,1 C 7,2 C 92 % 1017,5 hPa 0,0 l/m 0 min 0 min 0,0 UV-I 0 W/m 10,3 km/h (2 Bft)
19.03.2014 02:48 9,1 C 7,2 C 91 % 1017,5 hPa 0,0 l/m 0 min 0 min 0,0 UV-I 0 W/m 23,2 km/h (4 Bft)
19.03.2014 02:50 9,1 C 7,2 C 91 % 1017,5 hPa 0,0 l/m 0 min 0 min 0,0 UV-I 0 W/m 12,9 km/h (3 Bft)
19.03.2014 02:52 9,1 C 7,2 C 91 % 1017,5 hPa 0,0 l/m 0 min 0 min 0,0 UV-I 0 W/m 12,9 km/h (3 Bft)
19.03.2014 02:54 9,1 C 7,2 C 91 % 1017,5 hPa 0,0 l/m 0 min 2 min 0,0 UV-I 0 W/m 18,0 km/h (3 Bft)
19.03.2014 02:56 9,1 C 7,2 C 91 % 1017,5 hPa 0,0 l/m 0 min 0 min 0,0 UV-I 0 W/m 7,7 km/h (2 Bft)
19.03.2014 02:58 9,1 C 7,2 C 91 % 1017,5 hPa 0,0 l/m 0 min 2 min 0,0 UV-I 0 W/m 15,4 km/h (3 Bft)
19.03.2014 03:00 9,1 C 7,2 C 92 % 1017,4 hPa 0,0 l/m 0 min 2 min 0,0 UV-I 0 W/m 20,6 km/h (4 Bft)
19.03.2014 03:02 9,0 C 7,2 C 92 % 1017,4 hPa 0,0 l/m 0 min 2 min 0,0 UV-I 0 W/m 20,6 km/h (4 Bft)
19.03.2014 03:06 8,9 C 7,2 C 92 % 1017,6 hPa 0,0 l/m 0 min 2 min 0,0 UV-I 0 W/m 25,7 km/h (4 Bft)
19.03.2014 03:08 8,9 C 7,2 C 92 % 1017,5 hPa 0,0 l/m 0 min 2 min 0,0 UV-I 0 W/m 12,9 km/h (3 Bft)
19.03.2014 03:10 8,9 C 7,2 C 92 % 1017,5 hPa 0,0 l/m 0 min 2 min 0,0 UV-I 0 W/m 18,0 km/h (3 Bft)
19.03.2014 03:12 8,8 C 7,2 C 92 % 1017,5 hPa 0,0 l/m 0 min 2 min 0,0 UV-I 0 W/m 12,9 km/h (3 Bft)
19.03.2014 03:14 8,8 C 7,2 C 92 % 1017,6 hPa 0,0 l/m 0 min 2 min 0,0 UV-I 0 W/m 20,6 km/h (4 Bft)
19.03.2014 03:16 8,8 C 7,2 C 92 % 1017,6 hPa 0,0 l/m 0 min 2 min 0,0 UV-I 0 W/m 18,0 km/h (3 Bft)
19.03.2014 03:18 8,8 C 7,2 C 92 % 1017,7 hPa 0,2 l/m 0 min 2 min 0,0 UV-I 0 W/m 12,9 km/h (3 Bft)
19.03.2014 03:20 8,8 C 7,2 C 93 % 1017,6 hPa 0,0 l/m 0 min 2 min 0,0 UV-I 0 W/m 12,9 km/h (3 Bft)
19.03.2014 03:22 8,8 C 7,2 C 93 % 1017,6 hPa 0,0 l/m 0 min 2 min 0,0 UV-I 0 W/m 12,9 km/h (3 Bft)
19.03.2014 03:24 8,8 C 7,2 C 93 % 1017,7 hPa 0,0 l/m 0 min 2 min 0,0 UV-I 0 W/m 12,9 km/h (3 Bft)
19.03.2014 03:26 8,8 C 7,2 C 93 % 1017,7 hPa 0,0 l/m 0 min 0 min 0,0 UV-I 0 W/m 15,4 km/h (3 Bft)
19.03.2014 03:28 8,8 C 7,2 C 93 % 1017,8 hPa 0,0 l/m 0 min 0 min 0,0 UV-I 0 W/m 10,3 km/h (2 Bft)
19.03.2014 03:30 8,8 C 7,2 C 93 % 1017,8 hPa 0,0 l/m 0 min 0 min 0,0 UV-I 0 W/m 18,0 km/h (3 Bft)
19.03.2014 03:32 8,8 C 7,2 C 93 % 1017,8 hPa 0,0 l/m 0 min 0 min 0,0 UV-I 0 W/m 10,3 km/h (2 Bft)
19.03.2014 03:34 8,8 C 7,2 C 93 % 1017,8 hPa 0,0 l/m 0 min 0 min 0,0 UV-I 0 W/m 18,0 km/h (3 Bft)
19.03.2014 03:36 8,8 C 7,2 C 93 % 1017,9 hPa 0,0 l/m 0 min 2 min 0,0 UV-I 0 W/m 7,7 km/h (2 Bft)
19.03.2014 03:38 8,8 C 7,2 C 93 % 1017,9 hPa 0,0 l/m 0 min 2 min 0,0 UV-I 0 W/m 18,0 km/h (3 Bft)
19.03.2014 03:40 8,8 C 7,2 C 93 % 1018,0 hPa 0,0 l/m 0 min 2 min 0,0 UV-I 0 W/m 12,9 km/h (3 Bft)
19.03.2014 03:42 8,8 C 7,2 C 93 % 1018,0 hPa 0,0 l/m 0 min 2 min 0,0 UV-I 0 W/m 5,1 km/h (1 Bft)
19.03.2014 03:44 8,8 C 7,2 C 93 % 1018,0 hPa 0,0 l/m 0 min 0 min 0,0 UV-I 0 W/m 15,4 km/h (3 Bft)
19.03.2014 03:46 8,9 C 7,2 C 92 % 1018,0 hPa 0,0 l/m 0 min 0 min 0,0 UV-I 0 W/m 25,7 km/h (4 Bft)
19.03.2014 03:48 8,9 C 7,2 C 92 % 1018,1 hPa 0,0 l/m 0 min 0 min 0,0 UV-I 0 W/m 12,9 km/h (3 Bft)
19.03.2014 03:50 8,9 C 7,2 C 92 % 1018,1 hPa 0,0 l/m 0 min 0 min 0,0 UV-I 0 W/m 10,3 km/h (2 Bft)
19.03.2014 03:52 8,9 C 7,2 C 92 % 1018,1 hPa 0,0 l/m 0 min 0 min 0,0 UV-I 0 W/m 15,4 km/h (3 Bft)
19.03.2014 03:54 8,9 C 7,2 C 92 % 1018,1 hPa 0,0 l/m 0 min 0 min 0,0 UV-I 0 W/m 18,0 km/h (3 Bft)
19.03.2014 03:56 8,9 C 7,2 C 92 % 1018,2 hPa 0,0 l/m 0 min 0 min 0,0 UV-I 0 W/m 23,2 km/h (4 Bft)
19.03.2014 03:58 8,9 C 7,2 C 91 % 1018,2 hPa 0,0 l/m 0 min 0 min 0,0 UV-I 0 W/m 20,6 km/h (4 Bft)
19.03.2014 04:00 9,0 C 7,2 C 92 % 1018,2 hPa 0,0 l/m 0 min 0 min 0,0 UV-I 0 W/m 15,4 km/h (3 Bft)
19.03.2014 04:05 9,1 C 7,2 C 91 % 1018,3 hPa 0,0 l/m 0 min 0 min 0,0 UV-I 0 W/m 20,6 km/h (4 Bft)
19.03.2014 04:06 9,1 C 7,2 C 91 % 1018,3 hPa 0,0 l/m 0 min 0 min 0,0 UV-I 0 W/m 15,4 km/h (3 Bft)
19.03.2014 04:08 9,1 C 7,2 C 90 % 1018,3 hPa 0,0 l/m 0 min 0 min 0,0 UV-I 0 W/m 15,4 km/h (3 Bft)
19.03.2014 04:10 9,1 C 7,2 C 90 % 1018,4 hPa 0,0 l/m 0 min 0 min 0,0 UV-I 0 W/m 15,4 km/h (3 Bft)
19.03.2014 04:12 9,1 C 7,2 C 90 % 1018,5 hPa 0,0 l/m 0 min 0 min 0,0 UV-I 0 W/m 18,0 km/h (3 Bft)
19.03.2014 04:14 9,1 C 7,2 C 90 % 1018,4 hPa 0,0 l/m 0 min 0 min 0,0 UV-I 0 W/m 12,9 km/h (3 Bft)
19.03.2014 04:16 9,2 C 7,2 C 90 % 1018,5 hPa 0,0 l/m 0 min 0 min 0,0 UV-I 0 W/m 15,4 km/h (3 Bft)
19.03.2014 04:18 9,2 C 7,2 C 89 % 1018,6 hPa 0,0 l/m 0 min 0 min 0,0 UV-I 0 W/m 12,9 km/h (3 Bft)
19.03.2014 04:20 9,2 C 7,2 C 89 % 1018,6 hPa 0,0 l/m 0 min 0 min 0,0 UV-I 0 W/m 10,3 km/h (2 Bft)
19.03.2014 04:22 9,2 C 7,2 C 89 % 1018,6 hPa 0,0 l/m 0 min 0 min 0,0 UV-I 0 W/m 7,7 km/h (2 Bft)
19.03.2014 04:24 9,2 C 7,2 C 89 % 1018,7 hPa 0,0 l/m 0 min 0 min 0,0 UV-I 0 W/m 5,1 km/h (1 Bft)
19.03.2014 04:26 9,1 C 7,2 C 89 % 1018,7 hPa 0,0 l/m 0 min 0 min 0,0 UV-I 0 W/m 15,4 km/h (3 Bft)
19.03.2014 04:28 9,1 C 7,2 C 89 % 1018,7 hPa 0,0 l/m 0 min 0 min 0,0 UV-I 0 W/m 15,4 km/h (3 Bft)
19.03.2014 04:30 9,1 C 7,2 C 89 % 1018,8 hPa 0,0 l/m 0 min 0 min 0,0 UV-I 0 W/m 15,4 km/h (3 Bft)
19.03.2014 04:32 9,1 C 7,2 C 89 % 1018,8 hPa 0,0 l/m 0 min 2 min 0,0 UV-I 0 W/m 23,2 km/h (4 Bft)
19.03.2014 04:34 9,1 C 7,2 C 89 % 1018,8 hPa 0,0 l/m 0 min 0 min 0,0 UV-I 0 W/m 5,1 km/h (1 Bft)
19.03.2014 04:36 9,2 C 7,2 C 89 % 1018,8 hPa 0,0 l/m 0 min 0 min 0,0 UV-I 0 W/m 2,6 km/h (1 Bft)
19.03.2014 04:38 9,1 C 7,2 C 89 % 1018,9 hPa 0,0 l/m 0 min 0 min 0,0 UV-I 0 W/m 18,0 km/h (3 Bft)
19.03.2014 04:40 9,2 C 7,2 C 89 % 1018,9 hPa 0,0 l/m 0 min 0 min 0,0 UV-I 0 W/m 18,0 km/h (3 Bft)
19.03.2014 04:42 9,2 C 7,2 C 89 % 1018,9 hPa 0,0 l/m 0 min 0 min 0,0 UV-I 0 W/m 12,9 km/h (3 Bft)
19.03.2014 04:44 9,2 C 7,2 C 89 % 1018,9 hPa 0,0 l/m 0 min 0 min 0,0 UV-I 0 W/m 15,4 km/h (3 Bft)
19.03.2014 04:46 9,2 C 7,2 C 89 % 1019,0 hPa 0,0 l/m 0 min 0 min 0,0 UV-I 0 W/m 10,3 km/h (2 Bft)
19.03.2014 04:48 9,2 C 7,2 C 89 % 1019,1 hPa 0,0 l/m 0 min 0 min 0,0 UV-I 0 W/m 15,4 km/h (3 Bft)
19.03.2014 04:50 9,1 C 7,2 C 89 % 1019,0 hPa 0,0 l/m 0 min 0 min 0,0 UV-I 0 W/m 23,2 km/h (4 Bft)
19.03.2014 04:52 9,1 C 7,2 C 89 % 1019,1 hPa 0,0 l/m 0 min 0 min 0,0 UV-I 0 W/m 5,1 km/h (1 Bft)
19.03.2014 04:54 9,1 C 7,2 C 89 % 1019,2 hPa 0,0 l/m 0 min 0 min 0,0 UV-I 0 W/m 12,9 km/h (3 Bft)
19.03.2014 04:56 9,1 C 7,2 C 89 % 1019,3 hPa 0,0 l/m 0 min 0 min 0,0 UV-I 0 W/m 20,6 km/h (4 Bft)
19.03.2014 04:58 9,1 C 7,2 C 89 % 1019,3 hPa 0,0 l/m 0 min 0 min 0,0 UV-I 0 W/m 18,0 km/h (3 Bft)
19.03.2014 05:00 9,1 C 7,2 C 89 % 1019,3 hPa 0,0 l/m 0 min 0 min 0,0 UV-I 0 W/m 12,9 km/h (3 Bft)
19.03.2014 05:02 9,1 C 7,2 C 89 % 1019,3 hPa 0,0 l/m 0 min 0 min 0,0 UV-I 0 W/m 15,4 km/h (3 Bft)
19.03.2014 05:06 9,1 C 7,2 C 89 % 1019,4 hPa 0,0 l/m 0 min 0 min 0,0 UV-I 0 W/m 12,9 km/h (3 Bft)
19.03.2014 05:08 9,1 C 7,2 C 89 % 1019,4 hPa 0,0 l/m 0 min 0 min 0,0 UV-I 0 W/m 0,0 km/h (0 Bft)
19.03.2014 05:10 9,1 C 7,2 C 89 % 1019,4 hPa 0,0 l/m 0 min 0 min 0,0 UV-I 0 W/m 15,4 km/h (3 Bft)
19.03.2014 05:12 9,1 C 7,2 C 89 % 1019,4 hPa 0,0 l/m 0 min 0 min 0,0 UV-I 0 W/m 5,1 km/h (1 Bft)
19.03.2014 05:14 9,1 C 7,2 C 89 % 1019,5 hPa 0,0 l/m 0 min 0 min 0,0 UV-I 0 W/m 5,1 km/h (1 Bft)
19.03.2014 05:16 9,1 C 7,2 C 89 % 1019,5 hPa 0,0 l/m 0 min 0 min 0,0 UV-I 0 W/m 10,3 km/h (2 Bft)
19.03.2014 05:18 9,1 C 7,2 C 89 % 1019,5 hPa 0,0 l/m 0 min 0 min 0,0 UV-I 0 W/m 7,7 km/h (2 Bft)
19.03.2014 05:20 9,1 C 7,2 C 89 % 1019,5 hPa 0,0 l/m 0 min 0 min 0,0 UV-I 0 W/m 12,9 km/h (3 Bft)
19.03.2014 05:22 9,1 C 7,2 C 89 % 1019,6 hPa 0,0 l/m 0 min 0 min 0,0 UV-I 0 W/m 5,1 km/h (1 Bft)
19.03.2014 05:24 9,1 C 7,2 C 89 % 1019,7 hPa 0,0 l/m 0 min 0 min 0,0 UV-I 0 W/m 7,7 km/h (2 Bft)
19.03.2014 05:26 9,1 C 7,2 C 89 % 1019,7 hPa 0,0 l/m 0 min 0 min 0,0 UV-I 0 W/m 5,1 km/h (1 Bft)
19.03.2014 05:28 9,1 C 7,2 C 89 % 1019,7 hPa 0,0 l/m 0 min 0 min 0,0 UV-I 0 W/m 15,4 km/h (3 Bft)
19.03.2014 05:30 9,1 C 7,2 C 88 % 1019,7 hPa 0,0 l/m 0 min 0 min 0,0 UV-I 0 W/m 12,9 km/h (3 Bft)
19.03.2014 05:32 9,1 C 7,2 C 88 % 1019,6 hPa 0,0 l/m 0 min 0 min 0,0 UV-I 0 W/m 20,6 km/h (4 Bft)
19.03.2014 05:34 9,1 C 7,2 C 88 % 1019,7 hPa 0,0 l/m 0 min 0 min 0,0 UV-I 0 W/m 7,7 km/h (2 Bft)
19.03.2014 05:36 9,1 C 7,2 C 88 % 1019,7 hPa 0,0 l/m 0 min 0 min 0,0 UV-I 0 W/m 7,7 km/h (2 Bft)
19.03.2014 05:38 9,1 C 7,2 C 88 % 1019,7 hPa 0,0 l/m 0 min 0 min 0,0 UV-I 0 W/m 15,4 km/h (3 Bft)
19.03.2014 05:40 9,1 C 7,2 C 88 % 1019,7 hPa 0,0 l/m 0 min 0 min 0,0 UV-I 0 W/m 12,9 km/h (3 Bft)
19.03.2014 05:42 9,1 C 7,2 C 88 % 1019,8 hPa 0,0 l/m 0 min 0 min 0,0 UV-I 0 W/m 7,7 km/h (2 Bft)
19.03.2014 05:44 9,1 C 7,2 C 88 % 1019,8 hPa 0,0 l/m 0 min 0 min 0,0 UV-I 0 W/m 12,9 km/h (3 Bft)
19.03.2014 05:46 9,1 C 7,2 C 88 % 1019,8 hPa 0,0 l/m 0 min 0 min 0,0 UV-I 0 W/m 15,4 km/h (3 Bft)
19.03.2014 05:48 9,1 C 7,2 C 88 % 1019,9 hPa 0,0 l/m 0 min 0 min 0,0 UV-I 0 W/m 12,9 km/h (3 Bft)
19.03.2014 05:50 9,1 C 7,2 C 88 % 1019,9 hPa 0,0 l/m 0 min 0 min 0,0 UV-I 0 W/m 5,1 km/h (1 Bft)
19.03.2014 05:52 9,1 C 7,2 C 88 % 1020,0 hPa 0,0 l/m 0 min 0 min 0,0 UV-I 0 W/m 10,3 km/h (2 Bft)
19.03.2014 05:54 9,1 C 7,2 C 88 % 1019,9 hPa 0,0 l/m 0 min 0 min 0,0 UV-I 0 W/m 10,3 km/h (2 Bft)
19.03.2014 05:56 9,1 C 7,2 C 88 % 1020,0 hPa 0,0 l/m 0 min 0 min 0,0 UV-I 0 W/m 12,9 km/h (3 Bft)
19.03.2014 05:58 9,1 C 7,2 C 88 % 1020,0 hPa 0,0 l/m 0 min 0 min 0,0 UV-I 0 W/m 10,3 km/h (2 Bft)
19.03.2014 06:00 9,0 C 7,2 C 88 % 1020,0 hPa 0,0 l/m 0 min 0 min 0,0 UV-I 0 W/m 2,6 km/h (1 Bft)
19.03.2014 06:02 9,0 C 7,2 C 88 % 1020,1 hPa 0,0 l/m 0 min 0 min 0,0 UV-I 0 W/m 15,4 km/h (3 Bft)
19.03.2014 06:06 9,0 C 7,2 C 88 % 1020,0 hPa 0,0 l/m 0 min 0 min 0,0 UV-I 0 W/m 15,4 km/h (3 Bft)
19.03.2014 06:08 9,1 C 7,2 C 88 % 1020,0 hPa 0,0 l/m 0 min 0 min 0,0 UV-I 0 W/m 5,1 km/h (1 Bft)
19.03.2014 06:10 9,0 C 7,2 C 88 % 1019,9 hPa 0,0 l/m 0 min 0 min 0,0 UV-I 0 W/m 12,9 km/h (3 Bft)
19.03.2014 06:12 9,0 C 7,2 C 88 % 1020,0 hPa 0,0 l/m 0 min 0 min 0,0 UV-I 0 W/m 15,4 km/h (3 Bft)
19.03.2014 06:14 9,0 C 7,2 C 88 % 1020,1 hPa 0,0 l/m 0 min 0 min 0,0 UV-I 0 W/m 2,6 km/h (1 Bft)
19.03.2014 06:16 9,0 C 7,2 C 88 % 1020,1 hPa 0,0 l/m 0 min 0 min 0,0 UV-I 0 W/m 10,3 km/h (2 Bft)
19.03.2014 06:18 9,0 C 7,2 C 88 % 1020,2 hPa 0,0 l/m 0 min 0 min 0,0 UV-I 0 W/m 15,4 km/h (3 Bft)
19.03.2014 06:20 9,0 C 7,2 C 88 % 1020,3 hPa 0,0 l/m 0 min 0 min 0,0 UV-I 0 W/m 10,3 km/h (2 Bft)
19.03.2014 06:22 9,0 C 7,2 C 88 % 1020,3 hPa 0,0 l/m 0 min 0 min 0,0 UV-I 0 W/m 5,1 km/h (1 Bft)
19.03.2014 06:24 8,9 C 7,2 C 88 % 1020,3 hPa 0,0 l/m 0 min 0 min 0,0 UV-I 0 W/m 10,3 km/h (2 Bft)
19.03.2014 06:26 8,9 C 7,2 C 89 % 1020,4 hPa 0,0 l/m 0 min 0 min 0,0 UV-I 0 W/m 7,7 km/h (2 Bft)
19.03.2014 06:28 8,9 C 7,2 C 89 % 1020,4 hPa 0,0 l/m 0 min 0 min 0,0 UV-I 0 W/m 10,3 km/h (2 Bft)
19.03.2014 06:30 8,9 C 7,2 C 89 % 1020,5 hPa 0,0 l/m 0 min 0 min 0,0 UV-I 0 W/m 10,3 km/h (2 Bft)
19.03.2014 06:32 8,9 C 7,2 C 89 % 1020,6 hPa 0,0 l/m 0 min 0 min 0,0 UV-I 0 W/m 12,9 km/h (3 Bft)
19.03.2014 06:34 8,9 C 7,2 C 89 % 1020,5 hPa 0,0 l/m 0 min 0 min 0,0 UV-I 0 W/m 5,1 km/h (1 Bft)
19.03.2014 06:36 8,9 C 7,2 C 89 % 1020,6 hPa 0,0 l/m 0 min 0 min 0,0 UV-I 0 W/m 7,7 km/h (2 Bft)
19.03.2014 06:38 8,9 C 7,2 C 88 % 1020,6 hPa 0,0 l/m 0 min 0 min 0,0 UV-I 0 W/m 20,6 km/h (4 Bft)
19.03.2014 06:40 9,0 C 7,2 C 88 % 1020,6 hPa 0,0 l/m 0 min 0 min 0,0 UV-I 5 W/m 5,1 km/h (1 Bft)
19.03.2014 06:42 9,0 C 7,2 C 88 % 1020,6 hPa 0,0 l/m 0 min 0 min 0,0 UV-I 5 W/m 10,3 km/h (2 Bft)
19.03.2014 06:44 9,0 C 7,2 C 88 % 1020,7 hPa 0,0 l/m 0 min 0 min 0,0 UV-I 5 W/m 10,3 km/h (2 Bft)
19.03.2014 06:46 9,0 C 7,2 C 88 % 1020,7 hPa 0,0 l/m 0 min 0 min 0,0 UV-I 5 W/m 10,3 km/h (2 Bft)
19.03.2014 06:48 8,9 C 7,2 C 88 % 1020,7 hPa 0,0 l/m 0 min 0 min 0,0 UV-I 7 W/m 7,7 km/h (2 Bft)
19.03.2014 06:50 9,0 C 7,2 C 88 % 1020,7 hPa 0,0 l/m 0 min 0 min 0,0 UV-I 7 W/m 10,3 km/h (2 Bft)
19.03.2014 06:52 8,9 C 7,2 C 88 % 1020,7 hPa 0,0 l/m 0 min 0 min 0,0 UV-I 9 W/m 0,0 km/h (0 Bft)
19.03.2014 06:54 8,9 C 7,2 C 88 % 1020,7 hPa 0,0 l/m 0 min 0 min 0,0 UV-I 11 W/m 2,6 km/h (1 Bft)
19.03.2014 06:56 8,9 C 7,2 C 89 % 1020,7 hPa 0,0 l/m 0 min 0 min 0,0 UV-I 11 W/m 10,3 km/h (2 Bft)
19.03.2014 06:58 8,9 C 7,2 C 89 % 1020,7 hPa 0,0 l/m 0 min 0 min 0,0 UV-I 12 W/m 10,3 km/h (2 Bft)
19.03.2014 07:00 8,9 C 7,2 C 89 % 1020,8 hPa 0,0 l/m 0 min 0 min 0,0 UV-I 12 W/m 12,9 km/h (3 Bft)
19.03.2014 07:02 8,9 C 7,2 C 89 % 1020,8 hPa 0,0 l/m 0 min 0 min 0,0 UV-I 12 W/m 10,3 km/h (2 Bft)
19.03.2014 07:06 8,9 C 7,2 C 88 % 1020,8 hPa 0,0 l/m 0 min 0 min 0,0 UV-I 14 W/m 12,9 km/h (3 Bft)
19.03.2014 07:08 9,0 C 7,2 C 88 % 1020,8 hPa 0,0 l/m 0 min 0 min 0,0 UV-I 16 W/m 5,1 km/h (1 Bft)
19.03.2014 07:10 8,9 C 7,2 C 89 % 1020,8 hPa 0,0 l/m 0 min 0 min 0,0 UV-I 16 W/m 10,3 km/h (2 Bft)
19.03.2014 07:12 9,0 C 7,2 C 89 % 1020,8 hPa 0,0 l/m 0 min 0 min 0,0 UV-I 18 W/m 15,4 km/h (3 Bft)
19.03.2014 07:14 9,0 C 7,8 C 89 % 1020,8 hPa 0,0 l/m 0 min 0 min 0,0 UV-I 19 W/m 12,9 km/h (3 Bft)
19.03.2014 07:16 9,1 C 7,8 C 89 % 1020,9 hPa 0,0 l/m 0 min 0 min 0,0 UV-I 21 W/m 7,7 km/h (2 Bft)
19.03.2014 07:18 9,1 C 7,8 C 89 % 1020,9 hPa 0,0 l/m 0 min 0 min 0,0 UV-I 23 W/m 10,3 km/h (2 Bft)
19.03.2014 07:20 9,1 C 7,8 C 88 % 1020,9 hPa 0,0 l/m 0 min 0 min 0,0 UV-I 25 W/m 15,4 km/h (3 Bft)
19.03.2014 07:22 9,1 C 7,8 C 89 % 1020,9 hPa 0,0 l/m 0 min 0 min 0,0 UV-I 25 W/m 10,3 km/h (2 Bft)
19.03.2014 07:24 9,2 C 7,8 C 88 % 1020,9 hPa 0,0 l/m 0 min 0 min 0,0 UV-I 21 W/m 5,1 km/h (1 Bft)
19.03.2014 07:26 9,2 C 7,8 C 88 % 1021,0 hPa 0,0 l/m 0 min 0 min 0,0 UV-I 16 W/m 12,9 km/h (3 Bft)
19.03.2014 07:28 9,2 C 7,8 C 88 % 1021,0 hPa 0,0 l/m 0 min 0 min 0,0 UV-I 16 W/m 7,7 km/h (2 Bft)
19.03.2014 07:30 9,2 C 7,8 C 88 % 1021,0 hPa 0,0 l/m 0 min 0 min 0,0 UV-I 16 W/m 5,1 km/h (1 Bft)
19.03.2014 07:32 9,2 C 7,8 C 88 % 1021,1 hPa 0,0 l/m 0 min 0 min 0,0 UV-I 23 W/m 7,7 km/h (2 Bft)
19.03.2014 07:34 9,2 C 7,8 C 88 % 1021,1 hPa 0,0 l/m 0 min 0 min 0,0 UV-I 28 W/m 5,1 km/h (1 Bft)
19.03.2014 07:36 9,2 C 7,8 C 88 % 1021,1 hPa 0,0 l/m 0 min 0 min 0,0 UV-I 25 W/m 7,7 km/h (2 Bft)
19.03.2014 07:38 9,2 C 7,8 C 88 % 1021,2 hPa 0,0 l/m 0 min 0 min 0,0 UV-I 21 W/m 5,1 km/h (1 Bft)
19.03.2014 07:40 9,2 C 7,8 C 88 % 1021,3 hPa 0,0 l/m 0 min 0 min 0,0 UV-I 30 W/m 12,9 km/h (3 Bft)
19.03.2014 07:42 9,2 C 7,8 C 88 % 1021,2 hPa 0,0 l/m 0 min 0 min 0,0 UV-I 30 W/m 15,4 km/h (3 Bft)
19.03.2014 07:44 9,2 C 7,8 C 88 % 1021,2 hPa 0,0 l/m 0 min 0 min 0,0 UV-I 35 W/m 7,7 km/h (2 Bft)
19.03.2014 07:46 9,3 C 7,8 C 88 % 1021,2 hPa 0,0 l/m 0 min 0 min 0,0 UV-I 44 W/m 7,7 km/h (2 Bft)
19.03.2014 07:48 9,3 C 7,8 C 88 % 1021,3 hPa 0,0 l/m 0 min 0 min 0,0 UV-I 49 W/m 7,7 km/h (2 Bft)
19.03.2014 07:50 9,3 C 7,8 C 88 % 1021,3 hPa 0,0 l/m 0 min 0 min 0,0 UV-I 46 W/m 7,7 km/h (2 Bft)
19.03.2014 07:52 9,3 C 7,8 C 88 % 1021,3 hPa 0,0 l/m 0 min 0 min 0,0 UV-I 42 W/m 5,1 km/h (1 Bft)
19.03.2014 07:54 9,3 C 7,8 C 88 % 1021,3 hPa 0,0 l/m 0 min 0 min 0,0 UV-I 49 W/m 10,3 km/h (2 Bft)
19.03.2014 07:56 9,3 C 8,3 C 88 % 1021,4 hPa 0,0 l/m 0 min 0 min 0,0 UV-I 49 W/m 12,9 km/h (3 Bft)
19.03.2014 07:58 9,4 C 8,3 C 88 % 1021,4 hPa 0,0 l/m 0 min 0 min 0,0 UV-I 67 W/m 7,7 km/h (2 Bft)
19.03.2014 08:00 9,4 C 8,3 C 88 % 1021,4 hPa 0,0 l/m 0 min 0 min 0,0 UV-I 65 W/m 10,3 km/h (2 Bft)
19.03.2014 08:02 9,4 C 8,3 C 88 % 1021,4 hPa 0,0 l/m 0 min 0 min 0,0 UV-I 63 W/m 10,3 km/h (2 Bft)
19.03.2014 08:06 9,5 C 8,3 C 87 % 1021,4 hPa 0,0 l/m 0 min 0 min 0,0 UV-I 58 W/m 18,0 km/h (3 Bft)
19.03.2014 08:08 9,6 C 8,3 C 87 % 1021,4 hPa 0,0 l/m 0 min 0 min 0,0 UV-I 58 W/m 7,7 km/h (2 Bft)
19.03.2014 08:10 9,6 C 8,3 C 87 % 1021,5 hPa 0,0 l/m 0 min 0 min 0,0 UV-I 60 W/m 10,3 km/h (2 Bft)
19.03.2014 08:12 9,6 C 8,3 C 87 % 1021,5 hPa 0,0 l/m 0 min 0 min 0,0 UV-I 63 W/m 15,4 km/h (3 Bft)
19.03.2014 08:14 9,6 C 8,3 C 87 % 1021,5 hPa 0,0 l/m 0 min 0 min 0,0 UV-I 56 W/m 0,0 km/h (0 Bft)
19.03.2014 08:16 9,6 C 8,3 C 87 % 1021,5 hPa 0,0 l/m 0 min 0 min 0,0 UV-I 67 W/m 7,7 km/h (2 Bft)
19.03.2014 08:18 9,6 C 8,3 C 87 % 1021,5 hPa 0,0 l/m 0 min 0 min 0,0 UV-I 65 W/m 23,2 km/h (4 Bft)
19.03.2014 08:20 9,6 C 8,3 C 87 % 1021,5 hPa 0,0 l/m 0 min 0 min 0,0 UV-I 54 W/m 30,9 km/h (5 Bft)
19.03.2014 08:22 9,7 C 8,3 C 87 % 1021,7 hPa 0,0 l/m 0 min 0 min 0,0 UV-I 56 W/m 7,7 km/h (2 Bft)
19.03.2014 08:24 9,7 C 8,3 C 87 % 1021,8 hPa 0,0 l/m 0 min 0 min 0,0 UV-I 58 W/m 2,6 km/h (1 Bft)
19.03.2014 08:26 9,7 C 8,3 C 87 % 1021,8 hPa 0,0 l/m 0 min 0 min 0,0 UV-I 56 W/m 23,2 km/h (4 Bft)
19.03.2014 08:28 9,7 C 8,3 C 86 % 1021,8 hPa 0,0 l/m 0 min 0 min 0,0 UV-I 62 W/m 7,7 km/h (2 Bft)
19.03.2014 08:30 9,7 C 8,3 C 86 % 1021,9 hPa 0,0 l/m 0 min 0 min 0,0 UV-I 58 W/m 2,6 km/h (1 Bft)
19.03.2014 08:32 9,7 C 8,3 C 86 % 1021,8 hPa 0,0 l/m 0 min 0 min 0,0 UV-I 67 W/m 15,4 km/h (3 Bft)
19.03.2014 08:34 9,7 C 8,3 C 86 % 1021,8 hPa 0,0 l/m 0 min 0 min 0,0 UV-I 93 W/m 33,5 km/h (5 Bft)
19.03.2014 08:36 9,8 C 8,9 C 86 % 1021,9 hPa 0,0 l/m 0 min 0 min 0,0 UV-I 77 W/m 7,7 km/h (2 Bft)
19.03.2014 08:38 9,8 C 8,9 C 86 % 1022,0 hPa 0,0 l/m 0 min 0 min 0,0 UV-I 98 W/m 12,9 km/h (3 Bft)
19.03.2014 08:40 9,8 C 8,9 C 86 % 1022,0 hPa 0,0 l/m 0 min 0 min 0,0 UV-I 84 W/m 15,4 km/h (3 Bft)
19.03.2014 08:42 9,8 C 8,9 C 85 % 1022,0 hPa 0,0 l/m 0 min 0 min 0,0 UV-I 77 W/m 15,4 km/h (3 Bft)
19.03.2014 08:44 9,8 C 8,9 C 85 % 1022,1 hPa 0,0 l/m 0 min 0 min 0,0 UV-I 77 W/m 12,9 km/h (3 Bft)
19.03.2014 08:46 9,9 C 8,9 C 85 % 1022,1 hPa 0,0 l/m 0 min 0 min 0,0 UV-I 91 W/m 10,3 km/h (2 Bft)
19.03.2014 08:48 9,9 C 8,9 C 85 % 1022,1 hPa 0,0 l/m 0 min 0 min 0,0 UV-I 79 W/m 10,3 km/h (2 Bft)
19.03.2014 08:50 9,9 C 8,9 C 85 % 1022,2 hPa 0,0 l/m 0 min 0 min 0,0 UV-I 65 W/m 12,9 km/h (3 Bft)
19.03.2014 08:52 9,9 C 8,9 C 85 % 1022,1 hPa 0,0 l/m 0 min 0 min 0,0 UV-I 90 W/m 12,9 km/h (3 Bft)
19.03.2014 08:54 9,9 C 8,9 C 85 % 1022,1 hPa 0,0 l/m 0 min 0 min 0,0 UV-I 88 W/m 10,3 km/h (2 Bft)
19.03.2014 08:56 9,9 C 8,9 C 85 % 1022,1 hPa 0,0 l/m 0 min 0 min 0,0 UV-I 104 W/m 12,9 km/h (3 Bft)
19.03.2014 08:58 9,9 C 8,9 C 85 % 1022,1 hPa 0,0 l/m 0 min 0 min 0,0 UV-I 120 W/m 12,9 km/h (3 Bft)
19.03.2014 09:00 9,9 C 8,9 C 85 % 1022,1 hPa 0,0 l/m 0 min 0 min 0,0 UV-I 132 W/m 10,3 km/h (2 Bft)
19.03.2014 09:02 10,0 C 8,9 C 85 % 1022,2 hPa 0,0 l/m 0 min 0 min 0,0 UV-I 128 W/m 28,3 km/h (4 Bft)
19.03.2014 09:06 10,1 C 8,9 C 85 % 1022,3 hPa 0,0 l/m 0 min 0 min 0,0 UV-I 104 W/m 12,9 km/h (3 Bft)
19.03.2014 09:08 10,1 C 8,9 C 85 % 1022,2 hPa 0,0 l/m 0 min 0 min 0,0 UV-I 91 W/m 15,4 km/h (3 Bft)
19.03.2014 09:10 10,1 C 8,9 C 85 % 1022,3 hPa 0,0 l/m 0 min 0 min 0,0 UV-I 104 W/m 12,9 km/h (3 Bft)
19.03.2014 09:12 10,1 C 9,4 C 85 % 1022,2 hPa 0,0 l/m 0 min 0 min 0,0 UV-I 155 W/m 12,9 km/h (3 Bft)
19.03.2014 09:14 10,1 C 9,4 C 85 % 1022,2 hPa 0,0 l/m 0 min 0 min 0,0 UV-I 197 W/m 28,3 km/h (4 Bft)
19.03.2014 09:16 10,2 C 9,4 C 85 % 1022,3 hPa 0,0 l/m 0 min 0 min 0,0 UV-I 209 W/m 18,0 km/h (3 Bft)
19.03.2014 09:18 10,2 C 9,4 C 84 % 1022,3 hPa 0,0 l/m 2 min 0 min 0,0 UV-I 225 W/m 20,6 km/h (4 Bft)
19.03.2014 09:20 10,3 C 9,4 C 84 % 1022,2 hPa 0,0 l/m 2 min 0 min 0,0 UV-I 329 W/m 20,6 km/h (4 Bft)
19.03.2014 09:22 10,4 C 9,4 C 84 % 1022,2 hPa 0,0 l/m 2 min 0 min 0,0 UV-I 346 W/m 20,6 km/h (4 Bft)
19.03.2014 09:24 10,5 C 9,4 C 84 % 1022,2 hPa 0,0 l/m 2 min 0 min 0,0 UV-I 232 W/m 12,9 km/h (3 Bft)
19.03.2014 09:26 10,6 C 10,0 C 83 % 1022,2 hPa 0,0 l/m 2 min 0 min 0,0 UV-I 255 W/m 15,4 km/h (3 Bft)
19.03.2014 09:28 10,7 C 10,0 C 84 % 1022,3 hPa 0,0 l/m 2 min 0 min 0,0 UV-I 264 W/m 7,7 km/h (2 Bft)
19.03.2014 09:30 10,7 C 10,0 C 84 % 1022,3 hPa 0,0 l/m 0 min 0 min 0,0 UV-I 225 W/m 12,9 km/h (3 Bft)
19.03.2014 09:32 10,7 C 10,0 C 83 % 1022,3 hPa 0,0 l/m 0 min 0 min 0,0 UV-I 193 W/m 20,6 km/h (4 Bft)
19.03.2014 09:34 10,7 C 10,0 C 82 % 1022,3 hPa 0,0 l/m 0 min 0 min 0,0 UV-I 167 W/m 15,4 km/h (3 Bft)
19.03.2014 09:36 10,7 C 10,0 C 83 % 1022,2 hPa 0,0 l/m 0 min 0 min 0,0 UV-I 176 W/m 10,3 km/h (2 Bft)
19.03.2014 09:38 10,7 C 10,0 C 83 % 1022,3 hPa 0,0 l/m 0 min 0 min 0,0 UV-I 197 W/m 15,4 km/h (3 Bft)
19.03.2014 09:40 10,7 C 10,0 C 83 % 1022,3 hPa 0,0 l/m 0 min 0 min 0,0 UV-I 202 W/m 10,3 km/h (2 Bft)
19.03.2014 09:42 10,8 C 10,0 C 83 % 1022,3 hPa 0,0 l/m 0 min 0 min 0,0 UV-I 193 W/m 15,4 km/h (3 Bft)
19.03.2014 09:44 10,8 C 10,0 C 83 % 1022,3 hPa 0,0 l/m 0 min 0 min 0,0 UV-I 179 W/m 10,3 km/h (2 Bft)
19.03.2014 09:46 10,8 C 10,0 C 83 % 1022,3 hPa 0,0 l/m 0 min 0 min 0,0 UV-I 179 W/m 10,3 km/h (2 Bft)
19.03.2014 09:48 10,8 C 10,0 C 82 % 1022,3 hPa 0,0 l/m 0 min 0 min 0,0 UV-I 200 W/m 12,9 km/h (3 Bft)
19.03.2014 09:50 10,8 C 10,0 C 82 % 1022,3 hPa 0,0 l/m 2 min 0 min 0,0 UV-I 251 W/m 12,9 km/h (3 Bft)
19.03.2014 09:52 10,9 C 10,6 C 83 % 1022,3 hPa 0,0 l/m 2 min 0 min 0,0 UV-I 267 W/m 12,9 km/h (3 Bft)
19.03.2014 09:54 10,9 C 10,6 C 83 % 1022,3 hPa 0,0 l/m 2 min 0 min 0,0 UV-I 255 W/m 18,0 km/h (3 Bft)
19.03.2014 09:56 10,9 C 10,6 C 82 % 1022,3 hPa 0,0 l/m 0 min 0 min 0,0 UV-I 239 W/m 10,3 km/h (2 Bft)
19.03.2014 09:58 11,0 C 10,6 C 81 % 1022,3 hPa 0,0 l/m 0 min 0 min 0,0 UV-I 243 W/m 12,9 km/h (3 Bft)
19.03.2014 10:00 11,0 C 10,6 C 82 % 1022,3 hPa 0,0 l/m 2 min 0 min 0,5 UV-I 281 W/m 18,0 km/h (3 Bft)
19.03.2014 10:02 11,1 C 10,6 C 82 % 1022,4 hPa 0,0 l/m 2 min 0 min 0,5 UV-I 316 W/m 18,0 km/h (3 Bft)
19.03.2014 10:06 11,2 C 10,6 C 82 % 1022,2 hPa 0,0 l/m 2 min 0 min 0,5 UV-I 285 W/m 15,4 km/h (3 Bft)
19.03.2014 10:08 11,2 C 10,6 C 81 % 1022,2 hPa 0,0 l/m 2 min 0 min 0,5 UV-I 304 W/m 15,4 km/h (3 Bft)
19.03.2014 10:10 11,3 C 11,1 C 82 % 1022,2 hPa 0,0 l/m 2 min 0 min 0,5 UV-I 308 W/m 12,9 km/h (3 Bft)
19.03.2014 10:12 11,3 C 10,6 C 81 % 1022,2 hPa 0,0 l/m 0 min 0 min 0,0 UV-I 251 W/m 23,2 km/h (4 Bft)
19.03.2014 10:14 11,3 C 10,6 C 81 % 1022,1 hPa 0,0 l/m 0 min 0 min 0,0 UV-I 225 W/m 12,9 km/h (3 Bft)
19.03.2014 10:16 11,2 C 10,6 C 81 % 1022,2 hPa 0,0 l/m 0 min 0 min 0,0 UV-I 227 W/m 18,0 km/h (3 Bft)
19.03.2014 10:18 11,2 C 10,6 C 81 % 1022,0 hPa 0,0 l/m 0 min 0 min 0,0 UV-I 243 W/m 18,0 km/h (3 Bft)
19.03.2014 10:20 11,2 C 10,6 C 81 % 1022,1 hPa 0,0 l/m 0 min 0 min 0,5 UV-I 229 W/m 18,0 km/h (3 Bft)
19.03.2014 10:22 11,1 C 10,6 C 81 % 1022,0 hPa 0,0 l/m 0 min 0 min 0,5 UV-I 234 W/m 20,6 km/h (4 Bft)
19.03.2014 10:24 11,1 C 10,6 C 81 % 1022,0 hPa 0,0 l/m 0 min 0 min 0,7 UV-I 281 W/m 20,6 km/h (4 Bft)
19.03.2014 10:26 11,1 C 10,6 C 82 % 1021,9 hPa 0,0 l/m 2 min 0 min 0,8 UV-I 322 W/m 7,7 km/h (2 Bft)
19.03.2014 10:28 11,2 C 11,1 C 82 % 1021,8 hPa 0,0 l/m 2 min 0 min 1,1 UV-I 420 W/m 5,1 km/h (1 Bft)
19.03.2014 10:30 11,4 C 11,1 C 82 % 1021,9 hPa 0,0 l/m 2 min 0 min 0,6 UV-I 301 W/m 30,9 km/h (5 Bft)
19.03.2014 10:32 11,5 C 11,1 C 81 % 1021,8 hPa 0,0 l/m 0 min 0 min 0,6 UV-I 271 W/m 12,9 km/h (3 Bft)
19.03.2014 10:34 11,5 C 11,1 C 80 % 1021,7 hPa 0,0 l/m 0 min 0 min 0,7 UV-I 283 W/m 7,7 km/h (2 Bft)
19.03.2014 10:36 11,5 C 11,1 C 80 % 1021,8 hPa 0,0 l/m 2 min 0 min 0,7 UV-I 329 W/m 20,6 km/h (4 Bft)
19.03.2014 10:38 11,5 C 11,1 C 80 % 1021,8 hPa 0,0 l/m 2 min 0 min 0,7 UV-I 334 W/m 7,7 km/h (2 Bft)
19.03.2014 10:40 11,5 C 11,1 C 79 % 1021,9 hPa 0,0 l/m 0 min 0 min 0,6 UV-I 272 W/m 23,2 km/h (4 Bft)
19.03.2014 10:42 11,5 C 10,6 C 79 % 1021,9 hPa 0,0 l/m 0 min 0 min 0,6 UV-I 251 W/m 15,4 km/h (3 Bft)
19.03.2014 10:44 11,4 C 10,6 C 79 % 1022,0 hPa 0,0 l/m 0 min 0 min 0,6 UV-I 257 W/m 10,3 km/h (2 Bft)
19.03.2014 10:46 11,4 C 10,6 C 80 % 1022,0 hPa 0,0 l/m 0 min 0 min 0,7 UV-I 262 W/m 15,4 km/h (3 Bft)
19.03.2014 10:48 11,4 C 10,6 C 80 % 1022,1 hPa 0,0 l/m 0 min 0 min 0,7 UV-I 271 W/m 18,0 km/h (3 Bft)
19.03.2014 10:50 11,4 C 10,6 C 80 % 1022,1 hPa 0,0 l/m 0 min 0 min 0,8 UV-I 285 W/m 12,9 km/h (3 Bft)
19.03.2014 10:52 11,6 C 11,1 C 80 % 1022,1 hPa 0,0 l/m 2 min 0 min 0,9 UV-I 376 W/m 18,0 km/h (3 Bft)
19.03.2014 10:54 11,6 C 11,1 C 80 % 1022,1 hPa 0,0 l/m 2 min 0 min 0,9 UV-I 376 W/m 10,3 km/h (2 Bft)
19.03.2014 10:56 11,7 C 11,1 C 80 % 1022,1 hPa 0,0 l/m 0 min 0 min 0,8 UV-I 299 W/m 20,6 km/h (4 Bft)
19.03.2014 10:58 11,7 C 10,6 C 78 % 1022,1 hPa 0,0 l/m 0 min 0 min 0,8 UV-I 269 W/m 25,7 km/h (4 Bft)
19.03.2014 11:00 11,6 C 11,1 C 78 % 1022,2 hPa 0,0 l/m 2 min 0 min 1,0 UV-I 318 W/m 12,9 km/h (3 Bft)
19.03.2014 11:02 11,7 C 11,1 C 80 % 1022,2 hPa 0,0 l/m 2 min 0 min 0,9 UV-I 313 W/m 18,0 km/h (3 Bft)
19.03.2014 11:06 11,8 C 11,1 C 80 % 1022,2 hPa 0,0 l/m 0 min 0 min 0,9 UV-I 237 W/m 15,4 km/h (3 Bft)
19.03.2014 11:08 11,9 C 11,1 C 79 % 1022,2 hPa 0,0 l/m 0 min 0 min 1,3 UV-I 278 W/m 15,4 km/h (3 Bft)
19.03.2014 11:10 11,9 C 11,1 C 78 % 1022,2 hPa 0,0 l/m 2 min 0 min 1,3 UV-I 445 W/m 12,9 km/h (3 Bft)
19.03.2014 11:12 12,1 C 11,7 C 79 % 1022,2 hPa 0,0 l/m 2 min 0 min 1,2 UV-I 424 W/m 15,4 km/h (3 Bft)
19.03.2014 11:14 12,2 C 11,7 C 79 % 1022,2 hPa 0,0 l/m 2 min 0 min 1,3 UV-I 439 W/m 15,4 km/h (3 Bft)
19.03.2014 11:16 12,3 C 11,7 C 78 % 1022,2 hPa 0,0 l/m 2 min 0 min 1,3 UV-I 448 W/m 10,3 km/h (2 Bft)
19.03.2014 11:18 12,4 C 11,7 C 77 % 1022,2 hPa 0,0 l/m 2 min 0 min 1,1 UV-I 339 W/m 20,6 km/h (4 Bft)
19.03.2014 11:20 12,4 C 11,7 C 77 % 1022,2 hPa 0,0 l/m 2 min 0 min 1,1 UV-I 396 W/m 12,9 km/h (3 Bft)
19.03.2014 11:22 12,4 C 11,7 C 77 % 1022,2 hPa 0,0 l/m 2 min 0 min 1,1 UV-I 410 W/m 12,9 km/h (3 Bft)
19.03.2014 11:24 12,4 C 11,7 C 78 % 1022,3 hPa 0,0 l/m 2 min 0 min 1,1 UV-I 422 W/m 15,4 km/h (3 Bft)
19.03.2014 11:26 12,4 C 11,7 C 78 % 1022,2 hPa 0,0 l/m 2 min 0 min 1,1 UV-I 336 W/m 10,3 km/h (2 Bft)
19.03.2014 11:28 12,4 C 11,7 C 77 % 1022,2 hPa 0,0 l/m 2 min 0 min 1,5 UV-I 338 W/m 23,2 km/h (4 Bft)
19.03.2014 11:30 12,4 C 11,7 C 78 % 1022,2 hPa 0,0 l/m 2 min 0 min 1,3 UV-I 489 W/m 18,0 km/h (3 Bft)
19.03.2014 11:32 12,5 C 12,2 C 78 % 1022,0 hPa 0,0 l/m 2 min 0 min 1,8 UV-I 466 W/m 15,4 km/h (3 Bft)
19.03.2014 11:34 12,7 C 12,2 C 78 % 1022,0 hPa 0,0 l/m 2 min 0 min 1,1 UV-I 462 W/m 12,9 km/h (3 Bft)
19.03.2014 11:36 12,8 C 12,2 C 77 % 1022,0 hPa 0,0 l/m 0 min 0 min 1,0 UV-I 230 W/m 15,4 km/h (3 Bft)
19.03.2014 11:38 12,8 C 12,2 C 77 % 1022,1 hPa 0,0 l/m 0 min 0 min 1,3 UV-I 299 W/m 18,0 km/h (3 Bft)
19.03.2014 11:40 12,8 C 12,2 C 77 % 1022,1 hPa 0,0 l/m 2 min 0 min 1,6 UV-I 489 W/m 18,0 km/h (3 Bft)
19.03.2014 11:42 12,9 C 12,2 C 76 % 1022,1 hPa 0,0 l/m 2 min 0 min 1,2 UV-I 489 W/m 18,0 km/h (3 Bft)
19.03.2014 11:44 12,9 C 12,2 C 76 % 1022,2 hPa 0,0 l/m 0 min 0 min 1,8 UV-I 288 W/m 25,7 km/h (4 Bft)
19.03.2014 11:46 12,9 C 12,2 C 75 % 1022,2 hPa 0,0 l/m 2 min 0 min 1,7 UV-I 533 W/m 18,0 km/h (3 Bft)
19.03.2014 11:48 13,1 C 12,2 C 76 % 1022,0 hPa 0,0 l/m 2 min 0 min 1,6 UV-I 524 W/m 20,6 km/h (4 Bft)
19.03.2014 11:50 13,2 C 12,2 C 75 % 1022,1 hPa 0,0 l/m 2 min 0 min 1,6 UV-I 570 W/m 15,4 km/h (3 Bft)
19.03.2014 11:52 13,2 C 12,2 C 75 % 1022,0 hPa 0,0 l/m 2 min 0 min 1,4 UV-I 580 W/m 28,3 km/h (4 Bft)
19.03.2014 11:54 13,3 C 12,2 C 74 % 1022,0 hPa 0,0 l/m 2 min 0 min 1,4 UV-I 598 W/m 18,0 km/h (3 Bft)
19.03.2014 11:56 13,3 C 12,2 C 74 % 1022,1 hPa 0,0 l/m 2 min 0 min 1,2 UV-I 598 W/m 30,9 km/h (5 Bft)
19.03.2014 11:58 13,4 C 12,2 C 74 % 1022,1 hPa 0,0 l/m 2 min 0 min 1,1 UV-I 533 W/m 12,9 km/h (3 Bft)
19.03.2014 12:00 13,6 C 12,8 C 75 % 1022,1 hPa 0,0 l/m 2 min 0 min 1,1 UV-I 594 W/m 20,6 km/h (4 Bft)
19.03.2014 12:02 13,6 C 12,8 C 74 % 1022,2 hPa 0,0 l/m 2 min 0 min 1,0 UV-I 608 W/m 18,0 km/h (3 Bft)
19.03.2014 12:06 13,7 C 12,8 C 74 % 1022,1 hPa 0,0 l/m 2 min 0 min 1,0 UV-I 594 W/m 15,4 km/h (3 Bft)
19.03.2014 12:08 13,8 C 12,8 C 72 % 1022,0 hPa 0,0 l/m 2 min 0 min 1,0 UV-I 554 W/m 23,2 km/h (4 Bft)
19.03.2014 12:10 13,7 C 12,8 C 72 % 1022,1 hPa 0,0 l/m 2 min 0 min 1,0 UV-I 594 W/m 15,4 km/h (3 Bft)
19.03.2014 12:12 13,8 C 12,8 C 72 % 1022,2 hPa 0,0 l/m 2 min 0 min 1,0 UV-I 570 W/m 18,0 km/h (3 Bft)
19.03.2014 12:14 13,8 C 12,8 C 73 % 1022,1 hPa 0,0 l/m 2 min 0 min 1,0 UV-I 571 W/m 15,4 km/h (3 Bft)
19.03.2014 12:16 13,9 C 12,8 C 72 % 1022,1 hPa 0,0 l/m 2 min 0 min 1,0 UV-I 571 W/m 12,9 km/h (3 Bft)
19.03.2014 12:18 14,0 C 12,8 C 72 % 1022,2 hPa 0,0 l/m 2 min 0 min 1,0 UV-I 585 W/m 20,6 km/h (4 Bft)
19.03.2014 12:20 14,2 C 12,8 C 71 % 1022,1 hPa 0,0 l/m 2 min 0 min 1,0 UV-I 591 W/m 30,9 km/h (5 Bft)
19.03.2014 12:22 14,1 C 12,8 C 71 % 1022,2 hPa 0,0 l/m 2 min 0 min 1,0 UV-I 598 W/m 18,0 km/h (3 Bft)
19.03.2014 12:24 14,2 C 12,8 C 71 % 1022,2 hPa 0,0 l/m 2 min 0 min 1,0 UV-I 608 W/m 20,6 km/h (4 Bft)
19.03.2014 12:26 14,2 C 12,8 C 71 % 1022,1 hPa 0,0 l/m 2 min 0 min 1,0 UV-I 591 W/m 28,3 km/h (4 Bft)
19.03.2014 12:28 14,2 C 13,3 C 71 % 1022,2 hPa 0,0 l/m 2 min 0 min 1,1 UV-I 575 W/m 15,4 km/h (3 Bft)
19.03.2014 12:30 14,2 C 12,8 C 70 % 1022,1 hPa 0,0 l/m 2 min 0 min 1,1 UV-I 589 W/m 18,0 km/h (3 Bft)
19.03.2014 12:32 14,3 C 13,3 C 70 % 1022,1 hPa 0,0 l/m 2 min 0 min 1,0 UV-I 452 W/m 18,0 km/h (3 Bft)
19.03.2014 12:34 14,3 C 13,3 C 71 % 1022,2 hPa 0,0 l/m 2 min 0 min 1,1 UV-I 529 W/m 15,4 km/h (3 Bft)
19.03.2014 12:36 14,4 C 13,3 C 70 % 1022,2 hPa 0,0 l/m 2 min 0 min 1,2 UV-I 629 W/m 23,2 km/h (4 Bft)
19.03.2014 12:38 14,4 C 13,3 C 70 % 1022,2 hPa 0,0 l/m 2 min 0 min 1,2 UV-I 345 W/m 20,6 km/h (4 Bft)
19.03.2014 12:40 14,4 C 13,3 C 69 % 1022,3 hPa 0,0 l/m 2 min 0 min 1,3 UV-I 441 W/m 20,6 km/h (4 Bft)
19.03.2014 12:42 14,4 C 13,3 C 69 % 1022,3 hPa 0,0 l/m 2 min 0 min 1,3 UV-I 418 W/m 25,7 km/h (4 Bft)
19.03.2014 12:44 14,4 C 13,3 C 69 % 1022,2 hPa 0,0 l/m 2 min 0 min 1,4 UV-I 621 W/m 20,6 km/h (4 Bft)
19.03.2014 12:46 14,4 C 13,3 C 68 % 1022,2 hPa 0,0 l/m 0 min 0 min 1,3 UV-I 260 W/m 18,0 km/h (3 Bft)
19.03.2014 12:48 14,4 C 12,8 C 68 % 1022,3 hPa 0,0 l/m 0 min 0 min 1,4 UV-I 260 W/m 20,6 km/h (4 Bft)
19.03.2014 12:50 14,3 C 12,8 C 68 % 1022,2 hPa 0,0 l/m 0 min 0 min 1,5 UV-I 279 W/m 20,6 km/h (4 Bft)
19.03.2014 12:52 14,2 C 12,8 C 67 % 1022,2 hPa 0,0 l/m 0 min 0 min 1,3 UV-I 315 W/m 23,2 km/h (4 Bft)
19.03.2014 12:54 14,2 C 12,8 C 68 % 1022,2 hPa 0,0 l/m 2 min 0 min 1,4 UV-I 376 W/m 28,3 km/h (4 Bft)
19.03.2014 12:56 14,2 C 12,8 C 67 % 1022,2 hPa 0,0 l/m 2 min 0 min 1,6 UV-I 346 W/m 33,5 km/h (5 Bft)
19.03.2014 12:58 14,2 C 12,8 C 66 % 1022,2 hPa 0,0 l/m 2 min 0 min 1,8 UV-I 534 W/m 25,7 km/h (4 Bft)
19.03.2014 13:00 14,2 C 12,8 C 67 % 1022,2 hPa 0,0 l/m 2 min 0 min 2,0 UV-I 599 W/m 25,7 km/h (4 Bft)
19.03.2014 13:02 14,4 C 13,3 C 68 % 1022,1 hPa 0,0 l/m 2 min 0 min 1,7 UV-I 461 W/m 25,7 km/h (4 Bft)
19.03.2014 13:06 14,8 C 13,3 C 65 % 1022,0 hPa 0,0 l/m 2 min 0 min 1,9 UV-I 541 W/m 20,6 km/h (4 Bft)
19.03.2014 13:08 14,9 C 13,3 C 65 % 1022,0 hPa 0,0 l/m 2 min 0 min 1,9 UV-I 571 W/m 23,2 km/h (4 Bft)
19.03.2014 13:10 14,9 C 13,9 C 63 % 1021,9 hPa 0,0 l/m 2 min 0 min 1,9 UV-I 573 W/m 20,6 km/h (4 Bft)
19.03.2014 13:12 14,9 C 13,9 C 63 % 1021,8 hPa 0,0 l/m 2 min 0 min 1,9 UV-I 550 W/m 25,7 km/h (4 Bft)
19.03.2014 13:14 15,0 C 13,9 C 63 % 1021,8 hPa 0,0 l/m 2 min 0 min 1,7 UV-I 499 W/m 23,2 km/h (4 Bft)
19.03.2014 13:16 15,1 C 13,9 C 65 % 1021,8 hPa 0,0 l/m 2 min 0 min 1,8 UV-I 499 W/m 18,0 km/h (3 Bft)
19.03.2014 13:18 15,2 C 13,9 C 65 % 1021,7 hPa 0,0 l/m 2 min 0 min 1,8 UV-I 517 W/m 18,0 km/h (3 Bft)
19.03.2014 13:20 15,3 C 13,9 C 64 % 1021,8 hPa 0,0 l/m 2 min 0 min 1,9 UV-I 545 W/m 23,2 km/h (4 Bft)
19.03.2014 13:22 15,4 C 13,9 C 64 % 1021,7 hPa 0,0 l/m 2 min 0 min 1,9 UV-I 554 W/m 20,6 km/h (4 Bft)
19.03.2014 13:24 15,6 C 14,4 C 64 % 1021,7 hPa 0,0 l/m 2 min 0 min 1,9 UV-I 557 W/m 15,4 km/h (3 Bft)
19.03.2014 13:26 15,7 C 14,4 C 64 % 1021,7 hPa 0,0 l/m 2 min 0 min 1,9 UV-I 554 W/m 18,0 km/h (3 Bft)
19.03.2014 13:28 15,7 C 13,9 C 62 % 1021,6 hPa 0,0 l/m 2 min 0 min 1,9 UV-I 578 W/m 28,3 km/h (4 Bft)
19.03.2014 13:30 15,8 C 14,4 C 62 % 1021,7 hPa 0,0 l/m 2 min 0 min 1,9 UV-I 584 W/m 25,7 km/h (4 Bft)
19.03.2014 13:32 15,9 C 14,4 C 63 % 1021,7 hPa 0,0 l/m 2 min 0 min 1,8 UV-I 559 W/m 20,6 km/h (4 Bft)
19.03.2014 13:34 16,0 C 14,4 C 64 % 1021,7 hPa 0,0 l/m 2 min 0 min 1,8 UV-I 533 W/m 18,0 km/h (3 Bft)
19.03.2014 13:36 16,1 C 14,4 C 60 % 1021,8 hPa 0,0 l/m 2 min 0 min 1,8 UV-I 533 W/m 36,0 km/h (5 Bft)
19.03.2014 13:38 16,0 C 14,4 C 60 % 1021,6 hPa 0,0 l/m 2 min 0 min 1,6 UV-I 499 W/m 18,0 km/h (3 Bft)
19.03.2014 13:40 15,9 C 14,4 C 61 % 1021,7 hPa 0,0 l/m 2 min 0 min 1,7 UV-I 522 W/m 25,7 km/h (4 Bft)
19.03.2014 13:42 15,9 C 14,4 C 61 % 1021,7 hPa 0,0 l/m 2 min 0 min 1,5 UV-I 452 W/m 20,6 km/h (4 Bft)
19.03.2014 13:44 15,8 C 14,4 C 60 % 1021,6 hPa 0,0 l/m 2 min 0 min 1,5 UV-I 443 W/m 23,2 km/h (4 Bft)
19.03.2014 13:46 15,8 C 14,4 C 62 % 1021,7 hPa 0,0 l/m 2 min 0 min 1,6 UV-I 475 W/m 25,7 km/h (4 Bft)
19.03.2014 13:48 15,8 C 14,4 C 60 % 1021,7 hPa 0,0 l/m 2 min 0 min 1,6 UV-I 504 W/m 33,5 km/h (5 Bft)
19.03.2014 13:50 15,8 C 14,4 C 61 % 1021,7 hPa 0,0 l/m 2 min 0 min 1,7 UV-I 517 W/m 30,9 km/h (5 Bft)
19.03.2014 13:52 15,9 C 14,4 C 62 % 1021,7 hPa 0,0 l/m 2 min 0 min 1,5 UV-I 464 W/m 25,7 km/h (4 Bft)
19.03.2014 13:54 15,9 C 14,4 C 61 % 1021,7 hPa 0,0 l/m 2 min 0 min 1,7 UV-I 476 W/m 28,3 km/h (4 Bft)
19.03.2014 13:56 15,9 C 14,4 C 60 % 1021,6 hPa 0,0 l/m 2 min 0 min 1,6 UV-I 487 W/m 20,6 km/h (4 Bft)
19.03.2014 13:58 16,0 C 14,4 C 62 % 1021,5 hPa 0,0 l/m 2 min 0 min 1,5 UV-I 482 W/m 18,0 km/h (3 Bft)
19.03.2014 14:00 16,1 C 14,4 C 61 % 1021,6 hPa 0,0 l/m 2 min 0 min 1,5 UV-I 404 W/m 18,0 km/h (3 Bft)
19.03.2014 14:02 16,1 C 15,0 C 61 % 1021,6 hPa 0,0 l/m 2 min 0 min 1,2 UV-I 371 W/m 20,6 km/h (4 Bft)
19.03.2014 14:06 15,9 C 15,0 C 61 % 1021,6 hPa 0,0 l/m 2 min 0 min 1,4 UV-I 504 W/m 23,2 km/h (4 Bft)
19.03.2014 14:08 16,0 C 15,0 C 61 % 1021,6 hPa 0,0 l/m 2 min 0 min 1,2 UV-I 508 W/m 20,6 km/h (4 Bft)
19.03.2014 14:10 16,0 C 15,0 C 60 % 1021,6 hPa 0,0 l/m 2 min 0 min 1,1 UV-I 359 W/m 28,3 km/h (4 Bft)
19.03.2014 14:12 15,9 C 14,4 C 60 % 1021,6 hPa 0,0 l/m 2 min 0 min 1,2 UV-I 413 W/m 25,7 km/h (4 Bft)
19.03.2014 14:14 15,9 C 15,0 C 61 % 1021,7 hPa 0,0 l/m 2 min 0 min 1,4 UV-I 504 W/m 23,2 km/h (4 Bft)
19.03.2014 14:16 15,9 C 15,0 C 60 % 1021,8 hPa 0,0 l/m 2 min 0 min 1,2 UV-I 410 W/m 33,5 km/h (5 Bft)
19.03.2014 14:18 15,9 C 15,0 C 61 % 1021,7 hPa 0,0 l/m 2 min 0 min 1,4 UV-I 508 W/m 15,4 km/h (3 Bft)
19.03.2014 14:20 16,0 C 15,0 C 60 % 1021,7 hPa 0,0 l/m 2 min 0 min 1,3 UV-I 483 W/m 20,6 km/h (4 Bft)
19.03.2014 14:22 16,1 C 15,0 C 62 % 1021,7 hPa 0,0 l/m 2 min 0 min 1,2 UV-I 429 W/m 15,4 km/h (3 Bft)
19.03.2014 14:24 16,1 C 15,0 C 60 % 1021,7 hPa 0,0 l/m 2 min 0 min 1,2 UV-I 441 W/m 30,9 km/h (5 Bft)
19.03.2014 14:26 16,1 C 15,0 C 60 % 1021,7 hPa 0,0 l/m 2 min 0 min 1,1 UV-I 424 W/m 30,9 km/h (5 Bft)
19.03.2014 14:28 16,2 C 15,0 C 60 % 1021,7 hPa 0,0 l/m 2 min 0 min 1,1 UV-I 401 W/m 23,2 km/h (4 Bft)
19.03.2014 14:30 16,2 C 15,0 C 62 % 1021,6 hPa 0,0 l/m 2 min 0 min 0,9 UV-I 315 W/m 15,4 km/h (3 Bft)
19.03.2014 14:32 16,2 C 15,0 C 61 % 1021,7 hPa 0,0 l/m 2 min 0 min 0,9 UV-I 364 W/m 23,2 km/h (4 Bft)
19.03.2014 14:34 16,2 C 15,0 C 61 % 1021,7 hPa 0,0 l/m 2 min 0 min 0,9 UV-I 352 W/m 12,9 km/h (3 Bft)
19.03.2014 14:36 16,2 C 15,0 C 61 % 1021,6 hPa 0,0 l/m 2 min 0 min 0,8 UV-I 322 W/m 12,9 km/h (3 Bft)
19.03.2014 14:38 16,2 C 15,0 C 61 % 1021,5 hPa 0,0 l/m 2 min 0 min 0,8 UV-I 313 W/m 10,3 km/h (2 Bft)
19.03.2014 14:40 16,2 C 15,0 C 61 % 1021,6 hPa 0,0 l/m 2 min 0 min 0,8 UV-I 301 W/m 7,7 km/h (2 Bft)
19.03.2014 14:42 16,2 C 15,0 C 61 % 1021,5 hPa 0,0 l/m 2 min 0 min 0,7 UV-I 302 W/m 23,2 km/h (4 Bft)
19.03.2014 14:44 16,1 C 15,0 C 59 % 1021,6 hPa 0,0 l/m 2 min 0 min 0,7 UV-I 301 W/m 28,3 km/h (4 Bft)
19.03.2014 14:46 16,0 C 15,0 C 60 % 1021,7 hPa 0,0 l/m 2 min 0 min 0,9 UV-I 367 W/m 23,2 km/h (4 Bft)
19.03.2014 14:48 16,0 C 15,0 C 60 % 1021,6 hPa 0,0 l/m 2 min 0 min 0,8 UV-I 346 W/m 18,0 km/h (3 Bft)
19.03.2014 14:50 16,1 C 15,0 C 59 % 1021,6 hPa 0,0 l/m 2 min 0 min 0,8 UV-I 339 W/m 25,7 km/h (4 Bft)
19.03.2014 14:52 16,1 C 15,0 C 59 % 1021,5 hPa 0,0 l/m 2 min 0 min 0,8 UV-I 329 W/m 15,4 km/h (3 Bft)
19.03.2014 14:54 16,2 C 15,0 C 60 % 1021,5 hPa 0,0 l/m 2 min 0 min 0,7 UV-I 308 W/m 10,3 km/h (2 Bft)
19.03.2014 14:56 16,2 C 15,0 C 60 % 1021,4 hPa 0,0 l/m 2 min 0 min 0,7 UV-I 343 W/m 12,9 km/h (3 Bft)
19.03.2014 14:58 16,3 C 15,0 C 60 % 1021,4 hPa 0,0 l/m 0 min 0 min 0,7 UV-I 265 W/m 18,0 km/h (3 Bft)
19.03.2014 15:00 16,3 C 15,0 C 59 % 1021,4 hPa 0,0 l/m 0 min 0 min 0,6 UV-I 272 W/m 18,0 km/h (3 Bft)
19.03.2014 15:02 16,2 C 15,0 C 59 % 1021,5 hPa 0,0 l/m 2 min 0 min 0,6 UV-I 285 W/m 25,7 km/h (4 Bft)
19.03.2014 15:06 16,1 C 15,0 C 59 % 1021,5 hPa 0,0 l/m 2 min 0 min 0,6 UV-I 299 W/m 20,6 km/h (4 Bft)
19.03.2014 15:08 16,2 C 15,0 C 60 % 1021,4 hPa 0,0 l/m 2 min 0 min 0,6 UV-I 299 W/m 12,9 km/h (3 Bft)
19.03.2014 15:10 16,2 C 15,0 C 59 % 1021,4 hPa 0,0 l/m 2 min 0 min 0,6 UV-I 274 W/m 23,2 km/h (4 Bft)
19.03.2014 15:12 16,2 C 14,4 C 58 % 1021,4 hPa 0,0 l/m 2 min 0 min 0,7 UV-I 288 W/m 25,7 km/h (4 Bft)
19.03.2014 15:14 16,3 C 14,4 C 59 % 1021,3 hPa 0,0 l/m 2 min 0 min 0,7 UV-I 353 W/m 15,4 km/h (3 Bft)
19.03.2014 15:16 16,4 C 15,0 C 59 % 1021,3 hPa 0,0 l/m 2 min 0 min 0,8 UV-I 394 W/m 15,4 km/h (3 Bft)
19.03.2014 15:18 16,5 C 15,0 C 60 % 1021,3 hPa 0,0 l/m 2 min 0 min 0,8 UV-I 360 W/m 12,9 km/h (3 Bft)
19.03.2014 15:20 16,6 C 15,0 C 58 % 1021,3 hPa 0,0 l/m 2 min 0 min 0,8 UV-I 390 W/m 12,9 km/h (3 Bft)
19.03.2014 15:22 16,7 C 15,0 C 59 % 1021,3 hPa 0,0 l/m 2 min 0 min 0,8 UV-I 415 W/m 18,0 km/h (3 Bft)
19.03.2014 15:24 16,8 C 15,0 C 57 % 1021,3 hPa 0,0 l/m 2 min 0 min 0,7 UV-I 388 W/m 28,3 km/h (4 Bft)
19.03.2014 15:26 16,8 C 15,0 C 56 % 1021,2 hPa 0,0 l/m 2 min 0 min 0,8 UV-I 413 W/m 25,7 km/h (4 Bft)
19.03.2014 15:28 16,9 C 15,0 C 56 % 1021,3 hPa 0,0 l/m 2 min 0 min 0,8 UV-I 443 W/m 30,9 km/h (5 Bft)
19.03.2014 15:30 17,0 C 15,6 C 56 % 1021,4 hPa 0,0 l/m 2 min 0 min 0,7 UV-I 394 W/m 23,2 km/h (4 Bft)
19.03.2014 15:32 17,0 C 15,6 C 56 % 1021,2 hPa 0,0 l/m 2 min 0 min 0,7 UV-I 392 W/m 23,2 km/h (4 Bft)
19.03.2014 15:34 17,0 C 15,6 C 56 % 1021,2 hPa 0,0 l/m 2 min 0 min 0,6 UV-I 387 W/m 28,3 km/h (4 Bft)
19.03.2014 15:36 17,0 C 15,6 C 55 % 1021,2 hPa 0,0 l/m 2 min 0 min 0,5 UV-I 325 W/m 25,7 km/h (4 Bft)
19.03.2014 15:38 17,0 C 15,6 C 56 % 1021,1 hPa 0,0 l/m 2 min 0 min 0,5 UV-I 341 W/m 28,3 km/h (4 Bft)
19.03.2014 15:40 17,0 C 15,6 C 55 % 1021,1 hPa 0,0 l/m 2 min 0 min 0,5 UV-I 302 W/m 28,3 km/h (4 Bft)
19.03.2014 15:42 17,0 C 15,6 C 54 % 1021,1 hPa 0,0 l/m 2 min 0 min 0,5 UV-I 304 W/m 25,7 km/h (4 Bft)
19.03.2014 15:44 17,0 C 15,0 C 52 % 1021,2 hPa 0,0 l/m 2 min 0 min 0,5 UV-I 353 W/m 43,8 km/h (6 Bft)
19.03.2014 15:46 17,0 C 15,0 C 54 % 1021,1 hPa 0,0 l/m 2 min 0 min 0,0 UV-I 297 W/m 18,0 km/h (3 Bft)
19.03.2014 15:48 17,1 C 15,0 C 53 % 1021,2 hPa 0,0 l/m 2 min 0 min 0,0 UV-I 299 W/m 23,2 km/h (4 Bft)
19.03.2014 15:50 17,1 C 15,0 C 53 % 1021,2 hPa 0,0 l/m 2 min 0 min 0,5 UV-I 329 W/m 28,3 km/h (4 Bft)
19.03.2014 15:52 17,1 C 15,0 C 52 % 1021,2 hPa 0,0 l/m 2 min 0 min 0,5 UV-I 399 W/m 30,9 km/h (5 Bft)
19.03.2014 15:54 17,2 C 15,0 C 53 % 1021,2 hPa 0,0 l/m 2 min 0 min 0,5 UV-I 371 W/m 18,0 km/h (3 Bft)
19.03.2014 15:56 17,3 C 15,6 C 53 % 1021,2 hPa 0,0 l/m 2 min 0 min 0,0 UV-I 359 W/m 18,0 km/h (3 Bft)
19.03.2014 15:58 17,3 C 15,0 C 52 % 1021,1 hPa 0,0 l/m 2 min 0 min 0,0 UV-I 345 W/m 23,2 km/h (4 Bft)
19.03.2014 16:00 17,3 C 15,0 C 53 % 1021,1 hPa 0,0 l/m 2 min 0 min 0,0 UV-I 334 W/m 23,2 km/h (4 Bft)
19.03.2014 16:02 17,4 C 15,6 C 53 % 1021,1 hPa 0,0 l/m 2 min 0 min 0,0 UV-I 332 W/m 15,4 km/h (3 Bft)
19.03.2014 16:06 17,4 C 15,0 C 52 % 1021,1 hPa 0,0 l/m 0 min 0 min 0,0 UV-I 207 W/m 23,2 km/h (4 Bft)
19.03.2014 16:08 17,3 C 15,0 C 51 % 1021,0 hPa 0,0 l/m 2 min 0 min 0,0 UV-I 290 W/m 28,3 km/h (4 Bft)
19.03.2014 16:10 17,1 C 15,0 C 52 % 1021,0 hPa 0,0 l/m 2 min 0 min 0,0 UV-I 213 W/m 23,2 km/h (4 Bft)
19.03.2014 16:12 17,1 C 15,0 C 51 % 1021,1 hPa 0,0 l/m 2 min 0 min 0,0 UV-I 325 W/m 25,7 km/h (4 Bft)
19.03.2014 16:14 17,1 C 15,0 C 52 % 1021,0 hPa 0,0 l/m 2 min 0 min 0,0 UV-I 316 W/m 30,9 km/h (5 Bft)
19.03.2014 16:16 17,2 C 15,0 C 53 % 1021,1 hPa 0,0 l/m 2 min 0 min 0,0 UV-I 308 W/m 12,9 km/h (3 Bft)
19.03.2014 16:18 17,2 C 15,0 C 53 % 1021,0 hPa 0,0 l/m 2 min 0 min 0,0 UV-I 306 W/m 23,2 km/h (4 Bft)
19.03.2014 16:20 17,2 C 15,0 C 54 % 1021,1 hPa 0,0 l/m 2 min 0 min 0,0 UV-I 329 W/m 15,4 km/h (3 Bft)
19.03.2014 16:22 17,2 C 15,0 C 54 % 1021,1 hPa 0,0 l/m 2 min 0 min 0,0 UV-I 320 W/m 18,0 km/h (3 Bft)
19.03.2014 16:24 17,2 C 15,6 C 55 % 1021,0 hPa 0,0 l/m 2 min 0 min 0,0 UV-I 309 W/m 15,4 km/h (3 Bft)
19.03.2014 16:26 17,2 C 15,0 C 54 % 1021,0 hPa 0,0 l/m 2 min 0 min 0,0 UV-I 253 W/m 10,3 km/h (2 Bft)
19.03.2014 16:28 17,2 C 15,0 C 55 % 1021,0 hPa 0,0 l/m 2 min 0 min 0,0 UV-I 251 W/m 12,9 km/h (3 Bft)
19.03.2014 16:30 17,2 C 15,0 C 54 % 1021,0 hPa 0,0 l/m 2 min 0 min 0,0 UV-I 246 W/m 15,4 km/h (3 Bft)
19.03.2014 16:32 17,1 C 15,0 C 55 % 1021,0 hPa 0,0 l/m 2 min 0 min 0,0 UV-I 248 W/m 15,4 km/h (3 Bft)
19.03.2014 16:34 17,0 C 15,0 C 56 % 1021,0 hPa 0,0 l/m 2 min 0 min 0,0 UV-I 239 W/m 12,9 km/h (3 Bft)
19.03.2014 16:36 16,9 C 15,0 C 55 % 1021,0 hPa 0,0 l/m 0 min 0 min 0,0 UV-I 148 W/m 18,0 km/h (3 Bft)
19.03.2014 16:38 16,8 C 14,4 C 56 % 1020,9 hPa 0,0 l/m 0 min 0 min 0,0 UV-I 146 W/m 12,9 km/h (3 Bft)
19.03.2014 16:40 16,6 C 14,4 C 56 % 1021,0 hPa 0,0 l/m 2 min 0 min 0,0 UV-I 202 W/m 25,7 km/h (4 Bft)
19.03.2014 16:42 16,6 C 14,4 C 56 % 1021,0 hPa 0,0 l/m 2 min 0 min 0,0 UV-I 216 W/m 23,2 km/h (4 Bft)
19.03.2014 16:44 16,5 C 14,4 C 57 % 1021,1 hPa 0,0 l/m 2 min 0 min 0,0 UV-I 257 W/m 23,2 km/h (4 Bft)
19.03.2014 16:46 16,5 C 14,4 C 58 % 1021,1 hPa 0,0 l/m 2 min 0 min 0,0 UV-I 269 W/m 20,6 km/h (4 Bft)
19.03.2014 16:48 16,5 C 14,4 C 58 % 1021,1 hPa 0,0 l/m 2 min 0 min 0,0 UV-I 267 W/m 20,6 km/h (4 Bft)
19.03.2014 16:50 16,5 C 14,4 C 58 % 1021,1 hPa 0,0 l/m 2 min 0 min 0,0 UV-I 250 W/m 23,2 km/h (4 Bft)
19.03.2014 16:52 16,5 C 14,4 C 57 % 1021,0 hPa 0,0 l/m 2 min 0 min 0,0 UV-I 255 W/m 20,6 km/h (4 Bft)
19.03.2014 16:54 16,5 C 14,4 C 58 % 1021,0 hPa 0,0 l/m 2 min 0 min 0,0 UV-I 244 W/m 12,9 km/h (3 Bft)
19.03.2014 16:56 16,6 C 14,4 C 59 % 1021,1 hPa 0,0 l/m 2 min 0 min 0,0 UV-I 239 W/m 10,3 km/h (2 Bft)
19.03.2014 16:58 16,5 C 14,4 C 59 % 1021,1 hPa 0,0 l/m 2 min 0 min 0,0 UV-I 243 W/m 18,0 km/h (3 Bft)
19.03.2014 17:00 16,4 C 14,4 C 59 % 1021,1 hPa 0,0 l/m 2 min 0 min 0,0 UV-I 246 W/m 20,6 km/h (4 Bft)
19.03.2014 17:02 16,4 C 14,4 C 58 % 1021,1 hPa 0,0 l/m 2 min 0 min 0,0 UV-I 237 W/m 15,4 km/h (3 Bft)
19.03.2014 17:06 16,3 C 14,4 C 59 % 1021,2 hPa 0,0 l/m 2 min 0 min 0,0 UV-I 220 W/m 18,0 km/h (3 Bft)
19.03.2014 17:08 16,3 C 14,4 C 59 % 1021,1 hPa 0,0 l/m 2 min 0 min 0,0 UV-I 220 W/m 15,4 km/h (3 Bft)
19.03.2014 17:10 16,3 C 14,4 C 59 % 1021,1 hPa 0,0 l/m 2 min 0 min 0,0 UV-I 207 W/m 10,3 km/h (2 Bft)
19.03.2014 17:12 16,3 C 14,4 C 59 % 1021,1 hPa 0,0 l/m 2 min 0 min 0,0 UV-I 209 W/m 12,9 km/h (3 Bft)
19.03.2014 17:14 16,2 C 14,4 C 60 % 1021,0 hPa 0,0 l/m 2 min 0 min 0,0 UV-I 192 W/m 18,0 km/h (3 Bft)
19.03.2014 17:16 16,2 C 14,4 C 60 % 1021,0 hPa 0,0 l/m 2 min 0 min 0,0 UV-I 200 W/m 15,4 km/h (3 Bft)
19.03.2014 17:18 16,2 C 14,4 C 60 % 1021,0 hPa 0,0 l/m 2 min 0 min 0,0 UV-I 193 W/m 15,4 km/h (3 Bft)
19.03.2014 17:20 16,2 C 13,9 C 61 % 1021,1 hPa 0,0 l/m 2 min 0 min 0,0 UV-I 181 W/m 12,9 km/h (3 Bft)
19.03.2014 17:22 16,2 C 13,9 C 61 % 1021,1 hPa 0,0 l/m 2 min 0 min 0,0 UV-I 134 W/m 7,7 km/h (2 Bft)
19.03.2014 17:24 16,1 C 13,9 C 61 % 1021,1 hPa 0,0 l/m 2 min 0 min 0,0 UV-I 130 W/m 5,1 km/h (1 Bft)
19.03.2014 17:26 16,0 C 13,9 C 61 % 1021,1 hPa 0,0 l/m 2 min 0 min 0,0 UV-I 142 W/m 15,4 km/h (3 Bft)
19.03.2014 17:28 16,0 C 13,9 C 61 % 1021,1 hPa 0,0 l/m 2 min 0 min 0,0 UV-I 149 W/m 12,9 km/h (3 Bft)
19.03.2014 17:30 15,9 C 13,9 C 62 % 1021,1 hPa 0,0 l/m 0 min 0 min 0,0 UV-I 102 W/m 7,7 km/h (2 Bft)
19.03.2014 17:32 15,9 C 13,9 C 61 % 1021,1 hPa 0,0 l/m 0 min 0 min 0,0 UV-I 95 W/m 7,7 km/h (2 Bft)
19.03.2014 17:34 15,9 C 13,9 C 62 % 1021,1 hPa 0,0 l/m 0 min 0 min 0,0 UV-I 91 W/m 10,3 km/h (2 Bft)
19.03.2014 17:36 15,8 C 13,9 C 62 % 1021,1 hPa 0,0 l/m 0 min 0 min 0,0 UV-I 83 W/m 12,9 km/h (3 Bft)
19.03.2014 17:38 15,7 C 13,3 C 62 % 1021,1 hPa 0,0 l/m 0 min 0 min 0,0 UV-I 83 W/m 10,3 km/h (2 Bft)
19.03.2014 17:40 15,7 C 13,3 C 63 % 1021,2 hPa 0,0 l/m 0 min 0 min 0,0 UV-I 83 W/m 7,7 km/h (2 Bft)
19.03.2014 17:42 15,7 C 13,3 C 62 % 1021,2 hPa 0,0 l/m 0 min 0 min 0,0 UV-I 76 W/m 20,6 km/h (4 Bft)
19.03.2014 17:44 15,6 C 13,3 C 63 % 1021,2 hPa 0,0 l/m 0 min 0 min 0,0 UV-I 77 W/m 12,9 km/h (3 Bft)
19.03.2014 17:46 15,6 C 13,3 C 63 % 1021,1 hPa 0,0 l/m 0 min 0 min 0,0 UV-I 67 W/m 2,6 km/h (1 Bft)
19.03.2014 17:48 15,6 C 13,3 C 62 % 1021,2 hPa 0,0 l/m 0 min 0 min 0,0 UV-I 51 W/m 7,7 km/h (2 Bft)
19.03.2014 17:50 15,5 C 13,3 C 63 % 1021,2 hPa 0,0 l/m 0 min 0 min 0,0 UV-I 44 W/m 10,3 km/h (2 Bft)
19.03.2014 17:52 15,4 C 13,3 C 63 % 1021,2 hPa 0,0 l/m 0 min 0 min 0,0 UV-I 42 W/m 10,3 km/h (2 Bft)
19.03.2014 17:54 15,4 C 13,3 C 63 % 1021,3 hPa 0,0 l/m 0 min 0 min 0,0 UV-I 37 W/m 15,4 km/h (3 Bft)
19.03.2014 17:56 15,3 C 12,8 C 63 % 1021,3 hPa 0,0 l/m 0 min 0 min 0,0 UV-I 35 W/m 18,0 km/h (3 Bft)
19.03.2014 17:58 15,3 C 12,8 C 63 % 1021,3 hPa 0,0 l/m 0 min 0 min 0,0 UV-I 33 W/m 10,3 km/h (2 Bft)
19.03.2014 18:00 15,2 C 12,8 C 63 % 1021,4 hPa 0,0 l/m 0 min 0 min 0,0 UV-I 32 W/m 15,4 km/h (3 Bft)
19.03.2014 18:02 15,2 C 12,8 C 63 % 1021,4 hPa 0,0 l/m 0 min 0 min 0,0 UV-I 30 W/m 10,3 km/h (2 Bft)
19.03.2014 18:06 15,1 C 12,8 C 64 % 1021,4 hPa 0,0 l/m 0 min 0 min 0,0 UV-I 25 W/m 25,7 km/h (4 Bft)
19.03.2014 18:08 14,9 C 12,8 C 65 % 1021,4 hPa 0,0 l/m 0 min 0 min 0,0 UV-I 23 W/m 10,3 km/h (2 Bft)
19.03.2014 18:10 14,9 C 12,8 C 65 % 1021,4 hPa 0,0 l/m 0 min 0 min 0,0 UV-I 21 W/m 15,4 km/h (3 Bft)
19.03.2014 18:12 14,8 C 12,8 C 65 % 1021,4 hPa 0,0 l/m 0 min 0 min 0,0 UV-I 21 W/m 5,1 km/h (1 Bft)
19.03.2014 18:14 14,7 C 12,2 C 65 % 1021,4 hPa 0,0 l/m 0 min 0 min 0,0 UV-I 19 W/m 12,9 km/h (3 Bft)
19.03.2014 18:16 14,7 C 12,2 C 66 % 1021,4 hPa 0,0 l/m 0 min 0 min 0,0 UV-I 19 W/m 5,1 km/h (1 Bft)
19.03.2014 18:18 14,6 C 12,2 C 66 % 1021,5 hPa 0,0 l/m 0 min 0 min 0,0 UV-I 19 W/m 0,0 km/h (0 Bft)
19.03.2014 18:20 14,5 C 12,2 C 67 % 1021,5 hPa 0,0 l/m 0 min 0 min 0,0 UV-I 18 W/m 2,6 km/h (1 Bft)
19.03.2014 18:22 14,4 C 12,2 C 67 % 1021,6 hPa 0,0 l/m 0 min 0 min 0,0 UV-I 16 W/m 15,4 km/h (3 Bft)
19.03.2014 18:24 14,3 C 12,2 C 67 % 1021,6 hPa 0,0 l/m 0 min 0 min 0,0 UV-I 14 W/m 0,0 km/h (0 Bft)
19.03.2014 18:26 14,2 C 12,2 C 67 % 1021,6 hPa 0,0 l/m 0 min 0 min 0,0 UV-I 14 W/m 0,0 km/h (0 Bft)
19.03.2014 18:28 14,2 C 12,2 C 67 % 1021,6 hPa 0,0 l/m 0 min 0 min 0,0 UV-I 12 W/m 10,3 km/h (2 Bft)
19.03.2014 18:30 14,2 C 12,2 C 68 % 1021,7 hPa 0,0 l/m 0 min 0 min 0,0 UV-I 12 W/m 7,7 km/h (2 Bft)
19.03.2014 18:32 14,2 C 12,2 C 67 % 1021,6 hPa 0,0 l/m 0 min 0 min 0,0 UV-I 11 W/m 15,4 km/h (3 Bft)
19.03.2014 18:34 14,2 C 12,2 C 68 % 1021,6 hPa 0,0 l/m 0 min 0 min 0,0 UV-I 9 W/m 20,6 km/h (4 Bft)
19.03.2014 18:36 14,2 C 12,2 C 68 % 1021,6 hPa 0,0 l/m 0 min 0 min 0,0 UV-I 7 W/m 12,9 km/h (3 Bft)
19.03.2014 18:38 14,2 C 11,7 C 68 % 1021,6 hPa 0,0 l/m 0 min 0 min 0,0 UV-I 7 W/m 7,7 km/h (2 Bft)
19.03.2014 18:40 14,1 C 11,7 C 68 % 1021,6 hPa 0,0 l/m 0 min 0 min 0,0 UV-I 5 W/m 10,3 km/h (2 Bft)
19.03.2014 18:42 14,0 C 11,7 C 68 % 1021,6 hPa 0,0 l/m 0 min 0 min 0,0 UV-I 5 W/m 7,7 km/h (2 Bft)
19.03.2014 18:44 14,0 C 11,7 C 69 % 1021,7 hPa 0,0 l/m 0 min 0 min 0,0 UV-I 0 W/m 10,3 km/h (2 Bft)
19.03.2014 18:46 13,9 C 11,7 C 69 % 1021,7 hPa 0,0 l/m 0 min 0 min 0,0 UV-I 0 W/m 10,3 km/h (2 Bft)
19.03.2014 18:48 13,9 C 11,7 C 69 % 1021,7 hPa 0,0 l/m 0 min 0 min 0,0 UV-I 0 W/m 0,0 km/h (0 Bft)
19.03.2014 18:50 13,8 C 11,7 C 69 % 1021,7 hPa 0,0 l/m 0 min 0 min 0,0 UV-I 0 W/m 7,7 km/h (2 Bft)
19.03.2014 18:52 13,8 C 11,7 C 69 % 1021,7 hPa 0,0 l/m 0 min 0 min 0,0 UV-I 0 W/m 12,9 km/h (3 Bft)
19.03.2014 18:54 13,7 C 11,7 C 69 % 1021,6 hPa 0,0 l/m 0 min 0 min 0,0 UV-I 0 W/m 5,1 km/h (1 Bft)
19.03.2014 18:56 13,7 C 11,7 C 70 % 1021,6 hPa 0,0 l/m 0 min 0 min 0,0 UV-I 0 W/m 10,3 km/h (2 Bft)
19.03.2014 18:58 13,7 C 11,7 C 70 % 1021,6 hPa 0,0 l/m 0 min 0 min 0,0 UV-I 0 W/m 7,7 km/h (2 Bft)
19.03.2014 19:00 13,7 C 11,7 C 70 % 1021,7 hPa 0,0 l/m 0 min 0 min 0,0 UV-I 0 W/m 15,4 km/h (3 Bft)
19.03.2014 19:02 13,6 C 11,7 C 70 % 1021,6 hPa 0,0 l/m 0 min 0 min 0,0 UV-I 0 W/m 10,3 km/h (2 Bft)
19.03.2014 19:06 13,6 C 11,7 C 70 % 1021,6 hPa 0,0 l/m 0 min 0 min 0,0 UV-I 0 W/m 18,0 km/h (3 Bft)
19.03.2014 19:08 13,5 C 11,7 C 71 % 1021,6 hPa 0,0 l/m 0 min 0 min 0,0 UV-I 0 W/m 5,1 km/h (1 Bft)
19.03.2014 19:10 13,5 C 11,7 C 71 % 1021,7 hPa 0,0 l/m 0 min 0 min 0,0 UV-I 0 W/m 15,4 km/h (3 Bft)
19.03.2014 19:12 13,4 C 11,7 C 71 % 1021,6 hPa 0,0 l/m 0 min 0 min 0,0 UV-I 0 W/m 15,4 km/h (3 Bft)
19.03.2014 19:14 13,4 C 11,7 C 71 % 1021,7 hPa 0,0 l/m 0 min 0 min 0,0 UV-I 0 W/m 15,4 km/h (3 Bft)
19.03.2014 19:16 13,4 C 11,7 C 71 % 1021,7 hPa 0,0 l/m 0 min 0 min 0,0 UV-I 0 W/m 10,3 km/h (2 Bft)
19.03.2014 19:18 13,4 C 11,7 C 71 % 1021,8 hPa 0,0 l/m 0 min 0 min 0,0 UV-I 0 W/m 12,9 km/h (3 Bft)
19.03.2014 19:20 13,4 C 11,7 C 71 % 1021,8 hPa 0,0 l/m 0 min 0 min 0,0 UV-I 0 W/m 12,9 km/h (3 Bft)
19.03.2014 19:22 13,4 C 11,7 C 72 % 1021,8 hPa 0,0 l/m 0 min 0 min 0,0 UV-I 0 W/m 10,3 km/h (2 Bft)
19.03.2014 19:24 13,3 C 11,1 C 72 % 1021,8 hPa 0,0 l/m 0 min 0 min 0,0 UV-I 0 W/m 12,9 km/h (3 Bft)
19.03.2014 19:26 13,3 C 11,7 C 72 % 1021,8 hPa 0,0 l/m 0 min 0 min 0,0 UV-I 0 W/m 7,7 km/h (2 Bft)
19.03.2014 19:28 13,3 C 11,1 C 72 % 1021,8 hPa 0,0 l/m 0 min 0 min 0,0 UV-I 0 W/m 7,7 km/h (2 Bft)
19.03.2014 19:30 13,2 C 11,1 C 72 % 1021,9 hPa 0,0 l/m 0 min 0 min 0,0 UV-I 0 W/m 5,1 km/h (1 Bft)
19.03.2014 19:32 13,2 C 11,1 C 72 % 1021,9 hPa 0,0 l/m 0 min 0 min 0,0 UV-I 0 W/m 7,7 km/h (2 Bft)
19.03.2014 19:34 13,1 C 11,1 C 73 % 1021,9 hPa 0,0 l/m 0 min 0 min 0,0 UV-I 0 W/m 12,9 km/h (3 Bft)
19.03.2014 19:36 13,1 C 11,1 C 73 % 1021,9 hPa 0,0 l/m 0 min 0 min 0,0 UV-I 0 W/m 7,7 km/h (2 Bft)
19.03.2014 19:38 13,1 C 11,1 C 73 % 1021,9 hPa 0,0 l/m 0 min 0 min 0,0 UV-I 0 W/m 10,3 km/h (2 Bft)
19.03.2014 19:40 13,1 C 11,1 C 73 % 1021,9 hPa 0,0 l/m 0 min 0 min 0,0 UV-I 0 W/m 7,7 km/h (2 Bft)
19.03.2014 19:42 13,1 C 11,1 C 73 % 1021,9 hPa 0,0 l/m 0 min 0 min 0,0 UV-I 0 W/m 23,2 km/h (4 Bft)
19.03.2014 19:44 13,0 C 11,1 C 73 % 1021,9 hPa 0,0 l/m 0 min 0 min 0,0 UV-I 0 W/m 7,7 km/h (2 Bft)
19.03.2014 19:46 13,0 C 11,1 C 73 % 1021,8 hPa 0,0 l/m 0 min 0 min 0,0 UV-I 0 W/m 2,6 km/h (1 Bft)
19.03.2014 19:48 12,9 C 11,1 C 73 % 1021,9 hPa 0,0 l/m 0 min 0 min 0,0 UV-I 0 W/m 10,3 km/h (2 Bft)
19.03.2014 19:50 12,9 C 11,1 C 73 % 1021,8 hPa 0,0 l/m 0 min 0 min 0,0 UV-I 0 W/m 15,4 km/h (3 Bft)
19.03.2014 19:52 12,9 C 11,1 C 73 % 1021,8 hPa 0,0 l/m 0 min 0 min 0,0 UV-I 0 W/m 20,6 km/h (4 Bft)
19.03.2014 19:54 12,9 C 11,1 C 73 % 1021,9 hPa 0,0 l/m 0 min 0 min 0,0 UV-I 0 W/m 20,6 km/h (4 Bft)
19.03.2014 19:56 12,9 C 11,1 C 74 % 1021,8 hPa 0,0 l/m 0 min 0 min 0,0 UV-I 0 W/m 10,3 km/h (2 Bft)
19.03.2014 19:58 12,9 C 11,1 C 74 % 1021,8 hPa 0,0 l/m 0 min 0 min 0,0 UV-I 0 W/m 15,4 km/h (3 Bft)
19.03.2014 20:00 12,9 C 11,1 C 74 % 1021,8 hPa 0,0 l/m 0 min 0 min 0,0 UV-I 0 W/m 12,9 km/h (3 Bft)
19.03.2014 20:02 12,9 C 11,1 C 74 % 1021,8 hPa 0,0 l/m 0 min 0 min 0,0 UV-I 0 W/m 10,3 km/h (2 Bft)
19.03.2014 20:06 12,8 C 10,6 C 74 % 1021,8 hPa 0,0 l/m 0 min 0 min 0,0 UV-I 0 W/m 10,3 km/h (2 Bft)
19.03.2014 20:08 12,8 C 10,6 C 74 % 1021,8 hPa 0,0 l/m 0 min 0 min 0,0 UV-I 0 W/m 5,1 km/h (1 Bft)
19.03.2014 20:10 12,8 C 10,6 C 74 % 1021,7 hPa 0,0 l/m 0 min 0 min 0,0 UV-I 0 W/m 12,9 km/h (3 Bft)
19.03.2014 20:12 12,8 C 10,6 C 74 % 1021,7 hPa 0,0 l/m 0 min 0 min 0,0 UV-I 0 W/m 12,9 km/h (3 Bft)
19.03.2014 20:14 12,8 C 11,1 C 74 % 1021,7 hPa 0,0 l/m 0 min 0 min 0,0 UV-I 0 W/m 10,3 km/h (2 Bft)
19.03.2014 20:16 12,8 C 10,6 C 74 % 1021,8 hPa 0,0 l/m 0 min 0 min 0,0 UV-I 0 W/m 5,1 km/h (1 Bft)
19.03.2014 20:18 12,8 C 10,6 C 74 % 1021,8 hPa 0,0 l/m 0 min 0 min 0,0 UV-I 0 W/m 2,6 km/h (1 Bft)
19.03.2014 20:20 12,7 C 10,6 C 74 % 1021,8 hPa 0,0 l/m 0 min 0 min 0,0 UV-I 0 W/m 7,7 km/h (2 Bft)
19.03.2014 20:22 12,7 C 10,6 C 74 % 1021,8 hPa 0,0 l/m 0 min 0 min 0,0 UV-I 0 W/m 7,7 km/h (2 Bft)
19.03.2014 20:24 12,7 C 10,6 C 75 % 1021,8 hPa 0,0 l/m 0 min 0 min 0,0 UV-I 0 W/m 7,7 km/h (2 Bft)
19.03.2014 20:26 12,6 C 10,6 C 75 % 1021,8 hPa 0,0 l/m 0 min 0 min 0,0 UV-I 0 W/m 15,4 km/h (3 Bft)
19.03.2014 20:28 12,6 C 10,6 C 75 % 1021,8 hPa 0,0 l/m 0 min 0 min 0,0 UV-I 0 W/m 5,1 km/h (1 Bft)
19.03.2014 20:30 12,6 C 10,6 C 75 % 1021,8 hPa 0,0 l/m 0 min 0 min 0,0 UV-I 0 W/m 12,9 km/h (3 Bft)
19.03.2014 20:32 12,6 C 10,6 C 75 % 1021,9 hPa 0,0 l/m 0 min 0 min 0,0 UV-I 0 W/m 10,3 km/h (2 Bft)
19.03.2014 20:34 12,6 C 10,6 C 75 % 1021,9 hPa 0,0 l/m 0 min 0 min 0,0 UV-I 0 W/m 15,4 km/h (3 Bft)
19.03.2014 20:36 12,6 C 10,6 C 75 % 1021,9 hPa 0,0 l/m 0 min 0 min 0,0 UV-I 0 W/m 10,3 km/h (2 Bft)
19.03.2014 20:38 12,6 C 10,6 C 75 % 1022,0 hPa 0,0 l/m 0 min 0 min 0,0 UV-I 0 W/m 18,0 km/h (3 Bft)
19.03.2014 20:40 12,5 C 10,6 C 75 % 1021,9 hPa 0,0 l/m 0 min 0 min 0,0 UV-I 0 W/m 7,7 km/h (2 Bft)
19.03.2014 20:42 12,5 C 10,6 C 76 % 1021,9 hPa 0,0 l/m 0 min 0 min 0,0 UV-I 0 W/m 10,3 km/h (2 Bft)
19.03.2014 20:44 12,5 C 10,6 C 76 % 1021,9 hPa 0,0 l/m 0 min 0 min 0,0 UV-I 0 W/m 7,7 km/h (2 Bft)
19.03.2014 20:46 12,5 C 10,6 C 76 % 1021,9 hPa 0,0 l/m 0 min 0 min 0,0 UV-I 0 W/m 10,3 km/h (2 Bft)
19.03.2014 20:48 12,4 C 10,6 C 76 % 1021,8 hPa 0,0 l/m 0 min 0 min 0,0 UV-I 0 W/m 7,7 km/h (2 Bft)
19.03.2014 20:50 12,4 C 10,6 C 76 % 1021,9 hPa 0,0 l/m 0 min 0 min 0,0 UV-I 0 W/m 18,0 km/h (3 Bft)
19.03.2014 20:52 12,4 C 10,6 C 76 % 1021,8 hPa 0,0 l/m 0 min 0 min 0,0 UV-I 0 W/m 20,6 km/h (4 Bft)
19.03.2014 20:54 12,4 C 10,6 C 76 % 1021,9 hPa 0,0 l/m 0 min 0 min 0,0 UV-I 0 W/m 15,4 km/h (3 Bft)
19.03.2014 20:56 12,4 C 10,6 C 76 % 1021,8 hPa 0,0 l/m 0 min 0 min 0,0 UV-I 0 W/m 12,9 km/h (3 Bft)
19.03.2014 20:58 12,4 C 10,6 C 76 % 1021,9 hPa 0,0 l/m 0 min 0 min 0,0 UV-I 0 W/m 10,3 km/h (2 Bft)
19.03.2014 21:00 12,4 C 10,6 C 76 % 1021,9 hPa 0,0 l/m 0 min 0 min 0,0 UV-I 0 W/m 10,3 km/h (2 Bft)
19.03.2014 21:02 12,4 C 10,6 C 76 % 1021,9 hPa 0,0 l/m 0 min 0 min 0,0 UV-I 0 W/m 10,3 km/h (2 Bft)
19.03.2014 21:06 12,3 C 10,6 C 76 % 1022,0 hPa 0,0 l/m 0 min 0 min 0,0 UV-I 0 W/m 7,7 km/h (2 Bft)
19.03.2014 21:08 12,3 C 10,6 C 76 % 1022,0 hPa 0,0 l/m 0 min 0 min 0,0 UV-I 0 W/m 2,6 km/h (1 Bft)
19.03.2014 21:10 12,2 C 10,0 C 76 % 1022,1 hPa 0,0 l/m 0 min 0 min 0,0 UV-I 0 W/m 10,3 km/h (2 Bft)
19.03.2014 21:12 12,2 C 10,0 C 76 % 1022,0 hPa 0,0 l/m 0 min 0 min 0,0 UV-I 0 W/m 2,6 km/h (1 Bft)
19.03.2014 21:14 12,2 C 10,0 C 76 % 1022,0 hPa 0,0 l/m 0 min 0 min 0,0 UV-I 0 W/m 2,6 km/h (1 Bft)
19.03.2014 21:16 12,2 C 10,0 C 76 % 1022,0 hPa 0,0 l/m 0 min 0 min 0,0 UV-I 0 W/m 12,9 km/h (3 Bft)
19.03.2014 21:18 12,2 C 10,0 C 76 % 1022,0 hPa 0,0 l/m 0 min 0 min 0,0 UV-I 0 W/m 7,7 km/h (2 Bft)
19.03.2014 21:20 12,1 C 10,0 C 76 % 1022,1 hPa 0,0 l/m 0 min 0 min 0,0 UV-I 0 W/m 20,6 km/h (4 Bft)
19.03.2014 21:22 12,1 C 10,0 C 76 % 1022,1 hPa 0,0 l/m 0 min 0 min 0,0 UV-I 0 W/m 10,3 km/h (2 Bft)
19.03.2014 21:24 12,1 C 10,0 C 76 % 1022,1 hPa 0,0 l/m 0 min 0 min 0,0 UV-I 0 W/m 20,6 km/h (4 Bft)
19.03.2014 21:26 12,1 C 10,0 C 76 % 1022,1 hPa 0,0 l/m 0 min 0 min 0,0 UV-I 0 W/m 10,3 km/h (2 Bft)
19.03.2014 21:28 12,1 C 10,0 C 76 % 1022,1 hPa 0,0 l/m 0 min 0 min 0,0 UV-I 0 W/m 18,0 km/h (3 Bft)
19.03.2014 21:30 12,1 C 10,0 C 76 % 1022,0 hPa 0,0 l/m 0 min 0 min 0,0 UV-I 0 W/m 10,3 km/h (2 Bft)
19.03.2014 21:32 12,1 C 10,0 C 76 % 1022,0 hPa 0,0 l/m 0 min 0 min 0,0 UV-I 0 W/m 15,4 km/h (3 Bft)
19.03.2014 21:34 12,1 C 10,0 C 76 % 1022,0 hPa 0,0 l/m 0 min 0 min 0,0 UV-I 0 W/m 12,9 km/h (3 Bft)
19.03.2014 21:36 12,0 C 10,0 C 76 % 1022,0 hPa 0,0 l/m 0 min 0 min 0,0 UV-I 0 W/m 10,3 km/h (2 Bft)
19.03.2014 21:38 12,0 C 10,0 C 76 % 1022,0 hPa 0,0 l/m 0 min 0 min 0,0 UV-I 0 W/m 10,3 km/h (2 Bft)
19.03.2014 21:40 12,0 C 10,0 C 76 % 1022,0 hPa 0,0 l/m 0 min 0 min 0,0 UV-I 0 W/m 5,1 km/h (1 Bft)
19.03.2014 21:42 12,0 C 10,0 C 76 % 1022,0 hPa 0,0 l/m 0 min 0 min 0,0 UV-I 0 W/m 18,0 km/h (3 Bft)
19.03.2014 21:44 12,0 C 10,0 C 76 % 1022,0 hPa 0,0 l/m 0 min 0 min 0,0 UV-I 0 W/m 5,1 km/h (1 Bft)
19.03.2014 21:46 11,9 C 10,0 C 77 % 1022,0 hPa 0,0 l/m 0 min 0 min 0,0 UV-I 0 W/m 15,4 km/h (3 Bft)
19.03.2014 21:48 11,9 C 10,0 C 77 % 1022,0 hPa 0,0 l/m 0 min 0 min 0,0 UV-I 0 W/m 18,0 km/h (3 Bft)
19.03.2014 21:50 11,9 C 10,0 C 77 % 1022,1 hPa 0,0 l/m 0 min 0 min 0,0 UV-I 0 W/m 7,7 km/h (2 Bft)
19.03.2014 21:52 11,9 C 10,0 C 77 % 1022,0 hPa 0,0 l/m 0 min 0 min 0,0 UV-I 0 W/m 18,0 km/h (3 Bft)
19.03.2014 21:54 11,9 C 10,0 C 77 % 1022,0 hPa 0,0 l/m 0 min 0 min 0,0 UV-I 0 W/m 7,7 km/h (2 Bft)
19.03.2014 21:56 11,8 C 10,0 C 77 % 1022,0 hPa 0,0 l/m 0 min 0 min 0,0 UV-I 0 W/m 15,4 km/h (3 Bft)
19.03.2014 21:58 11,8 C 10,0 C 77 % 1022,0 hPa 0,0 l/m 0 min 0 min 0,0 UV-I 0 W/m 10,3 km/h (2 Bft)
19.03.2014 22:00 11,8 C 10,0 C 77 % 1022,0 hPa 0,0 l/m 0 min 0 min 0,0 UV-I 0 W/m 10,3 km/h (2 Bft)
19.03.2014 22:02 11,8 C 10,0 C 77 % 1022,0 hPa 0,0 l/m 0 min 0 min 0,0 UV-I 0 W/m 23,2 km/h (4 Bft)
19.03.2014 22:06 11,7 C 10,0 C 77 % 1022,0 hPa 0,0 l/m 0 min 0 min 0,0 UV-I 0 W/m 28,3 km/h (4 Bft)
19.03.2014 22:08 11,8 C 10,0 C 77 % 1022,0 hPa 0,0 l/m 0 min 0 min 0,0 UV-I 0 W/m 7,7 km/h (2 Bft)
19.03.2014 22:10 11,8 C 10,0 C 77 % 1022,0 hPa 0,0 l/m 0 min 0 min 0,0 UV-I 0 W/m 10,3 km/h (2 Bft)
19.03.2014 22:12 11,7 C 10,0 C 77 % 1022,0 hPa 0,0 l/m 0 min 0 min 0,0 UV-I 0 W/m 15,4 km/h (3 Bft)
19.03.2014 22:14 11,7 C 9,4 C 77 % 1022,0 hPa 0,0 l/m 0 min 0 min 0,0 UV-I 0 W/m 10,3 km/h (2 Bft)
19.03.2014 22:16 11,7 C 9,4 C 77 % 1022,0 hPa 0,0 l/m 0 min 0 min 0,0 UV-I 0 W/m 15,4 km/h (3 Bft)
19.03.2014 22:18 11,6 C 9,4 C 77 % 1022,0 hPa 0,0 l/m 0 min 0 min 0,0 UV-I 0 W/m 15,4 km/h (3 Bft)
19.03.2014 22:20 11,6 C 9,4 C 77 % 1022,0 hPa 0,0 l/m 0 min 0 min 0,0 UV-I 0 W/m 15,4 km/h (3 Bft)
19.03.2014 22:22 11,6 C 10,0 C 77 % 1022,0 hPa 0,0 l/m 0 min 0 min 0,0 UV-I 0 W/m 23,2 km/h (4 Bft)
19.03.2014 22:24 11,6 C 9,4 C 77 % 1022,0 hPa 0,0 l/m 0 min 0 min 0,0 UV-I 0 W/m 2,6 km/h (1 Bft)
19.03.2014 22:26 11,6 C 9,4 C 78 % 1022,0 hPa 0,0 l/m 0 min 0 min 0,0 UV-I 0 W/m 7,7 km/h (2 Bft)
19.03.2014 22:28 11,6 C 9,4 C 78 % 1021,9 hPa 0,0 l/m 0 min 0 min 0,0 UV-I 0 W/m 12,9 km/h (3 Bft)
19.03.2014 22:30 11,6 C 9,4 C 78 % 1021,9 hPa 0,0 l/m 0 min 0 min 0,0 UV-I 0 W/m 12,9 km/h (3 Bft)
19.03.2014 22:32 11,5 C 9,4 C 78 % 1021,9 hPa 0,0 l/m 0 min 0 min 0,0 UV-I 0 W/m 10,3 km/h (2 Bft)
19.03.2014 22:34 11,5 C 9,4 C 78 % 1022,0 hPa 0,0 l/m 0 min 0 min 0,0 UV-I 0 W/m 12,9 km/h (3 Bft)
19.03.2014 22:36 11,5 C 9,4 C 78 % 1021,9 hPa 0,0 l/m 0 min 0 min 0,0 UV-I 0 W/m 10,3 km/h (2 Bft)
19.03.2014 22:38 11,5 C 9,4 C 78 % 1021,9 hPa 0,0 l/m 0 min 0 min 0,0 UV-I 0 W/m 12,9 km/h (3 Bft)
19.03.2014 22:40 11,5 C 9,4 C 78 % 1021,9 hPa 0,0 l/m 0 min 0 min 0,0 UV-I 0 W/m 12,9 km/h (3 Bft)
19.03.2014 22:42 11,4 C 9,4 C 78 % 1021,9 hPa 0,0 l/m 0 min 0 min 0,0 UV-I 0 W/m 25,7 km/h (4 Bft)
19.03.2014 22:44 11,4 C 9,4 C 78 % 1021,9 hPa 0,0 l/m 0 min 0 min 0,0 UV-I 0 W/m 10,3 km/h (2 Bft)
19.03.2014 22:46 11,4 C 9,4 C 78 % 1021,9 hPa 0,0 l/m 0 min 0 min 0,0 UV-I 0 W/m 7,7 km/h (2 Bft)
19.03.2014 22:48 11,4 C 9,4 C 78 % 1021,9 hPa 0,0 l/m 0 min 0 min 0,0 UV-I 0 W/m 5,1 km/h (1 Bft)
19.03.2014 22:50 11,4 C 9,4 C 78 % 1021,9 hPa 0,0 l/m 0 min 0 min 0,0 UV-I 0 W/m 5,1 km/h (1 Bft)
19.03.2014 22:52 11,3 C 9,4 C 78 % 1021,9 hPa 0,0 l/m 0 min 0 min 0,0 UV-I 0 W/m 18,0 km/h (3 Bft)
19.03.2014 22:54 11,3 C 9,4 C 78 % 1021,9 hPa 0,0 l/m 0 min 0 min 0,0 UV-I 0 W/m 10,3 km/h (2 Bft)
19.03.2014 22:56 11,3 C 9,4 C 78 % 1021,9 hPa 0,0 l/m 0 min 0 min 0,0 UV-I 0 W/m 12,9 km/h (3 Bft)
19.03.2014 22:58 11,3 C 9,4 C 78 % 1021,9 hPa 0,0 l/m 0 min 0 min 0,0 UV-I 0 W/m 5,1 km/h (1 Bft)
19.03.2014 23:00 11,3 C 9,4 C 78 % 1021,9 hPa 0,0 l/m 0 min 0 min 0,0 UV-I 0 W/m 7,7 km/h (2 Bft)
19.03.2014 23:02 11,3 C 9,4 C 78 % 1021,9 hPa 0,0 l/m 0 min 0 min 0,0 UV-I 0 W/m 12,9 km/h (3 Bft)
19.03.2014 23:06 11,3 C 9,4 C 78 % 1021,9 hPa 0,0 l/m 0 min 0 min 0,0 UV-I 0 W/m 15,4 km/h (3 Bft)
19.03.2014 23:08 11,2 C 9,4 C 78 % 1021,9 hPa 0,0 l/m 0 min 0 min 0,0 UV-I 0 W/m 7,7 km/h (2 Bft)
19.03.2014 23:10 11,2 C 9,4 C 79 % 1021,9 hPa 0,0 l/m 0 min 0 min 0,0 UV-I 0 W/m 10,3 km/h (2 Bft)
19.03.2014 23:12 11,2 C 9,4 C 79 % 1021,9 hPa 0,0 l/m 0 min 0 min 0,0 UV-I 0 W/m 10,3 km/h (2 Bft)
19.03.2014 23:14 11,2 C 9,4 C 78 % 1021,9 hPa 0,0 l/m 0 min 0 min 0,0 UV-I 0 W/m 12,9 km/h (3 Bft)
19.03.2014 23:16 11,2 C 9,4 C 78 % 1021,8 hPa 0,0 l/m 0 min 0 min 0,0 UV-I 0 W/m 5,1 km/h (1 Bft)
19.03.2014 23:18 11,2 C 9,4 C 78 % 1021,8 hPa 0,0 l/m 0 min 0 min 0,0 UV-I 0 W/m 15,4 km/h (3 Bft)
19.03.2014 23:20 11,2 C 9,4 C 78 % 1021,8 hPa 0,0 l/m 0 min 0 min 0,0 UV-I 0 W/m 10,3 km/h (2 Bft)
19.03.2014 23:22 11,2 C 9,4 C 78 % 1021,9 hPa 0,0 l/m 0 min 0 min 0,0 UV-I 0 W/m 18,0 km/h (3 Bft)
19.03.2014 23:24 11,2 C 9,4 C 78 % 1021,8 hPa 0,0 l/m 0 min 0 min 0,0 UV-I 0 W/m 12,9 km/h (3 Bft)
19.03.2014 23:26 11,2 C 9,4 C 78 % 1021,8 hPa 0,0 l/m 0 min 0 min 0,0 UV-I 0 W/m 10,3 km/h (2 Bft)
19.03.2014 23:28 11,2 C 9,4 C 79 % 1021,8 hPa 0,0 l/m 0 min 0 min 0,0 UV-I 0 W/m 10,3 km/h (2 Bft)
19.03.2014 23:30 11,2 C 9,4 C 79 % 1021,9 hPa 0,0 l/m 0 min 0 min 0,0 UV-I 0 W/m 7,7 km/h (2 Bft)
19.03.2014 23:32 11,2 C 9,4 C 79 % 1021,8 hPa 0,0 l/m 0 min 0 min 0,0 UV-I 0 W/m 10,3 km/h (2 Bft)
19.03.2014 23:34 11,2 C 9,4 C 78 % 1021,8 hPa 0,0 l/m 0 min 0 min 0,0 UV-I 0 W/m 5,1 km/h (1 Bft)
19.03.2014 23:36 11,2 C 9,4 C 78 % 1021,8 hPa 0,0 l/m 0 min 0 min 0,0 UV-I 0 W/m 15,4 km/h (3 Bft)
19.03.2014 23:38 11,1 C 9,4 C 78 % 1021,8 hPa 0,0 l/m 0 min 0 min 0,0 UV-I 0 W/m 18,0 km/h (3 Bft)
19.03.2014 23:40 11,1 C 9,4 C 78 % 1021,8 hPa 0,0 l/m 0 min 0 min 0,0 UV-I 0 W/m 15,4 km/h (3 Bft)
19.03.2014 23:42 11,1 C 9,4 C 78 % 1021,8 hPa 0,0 l/m 0 min 0 min 0,0 UV-I 0 W/m 12,9 km/h (3 Bft)
19.03.2014 23:44 11,1 C 9,4 C 78 % 1021,8 hPa 0,0 l/m 0 min 0 min 0,0 UV-I 0 W/m 12,9 km/h (3 Bft)
19.03.2014 23:46 11,1 C 9,4 C 78 % 1021,7 hPa 0,0 l/m 0 min 0 min 0,0 UV-I 0 W/m 12,9 km/h (3 Bft)
19.03.2014 23:48 11,1 C 9,4 C 78 % 1021,7 hPa 0,0 l/m 0 min 0 min 0,0 UV-I 0 W/m 10,3 km/h (2 Bft)
19.03.2014 23:50 11,1 C 9,4 C 78 % 1021,7 hPa 0,0 l/m 0 min 0 min 0,0 UV-I 0 W/m 15,4 km/h (3 Bft)
19.03.2014 23:52 11,1 C 9,4 C 78 % 1021,7 hPa 0,0 l/m 0 min 0 min 0,0 UV-I 0 W/m 12,9 km/h (3 Bft)
19.03.2014 23:54 11,1 C 9,4 C 78 % 1021,6 hPa 0,0 l/m 0 min 0 min 0,0 UV-I 0 W/m 18,0 km/h (3 Bft)
19.03.2014 23:56 11,1 C 9,4 C 78 % 1021,6 hPa 0,0 l/m 0 min 0 min 0,0 UV-I 0 W/m 10,3 km/h (2 Bft)
19.03.2014 23:58 11,1 C 9,4 C 78 % 1021,6 hPa 0,0 l/m 0 min 0 min 0,0 UV-I 0 W/m 15,4 km/h (3 Bft)
_ Min-Zeit 00:00 00:06 16:08 00:00 - - - - - 05:08
Minimum _ 8,4 C 6,7 C 51 % 1015,0 hPa - - - - - 0,0 km/h (0 Bft)
_ Max-Zeit 16:02 15:30 00:12 10:02 03:18 09:18 00:00 13:00 12:36 15:44
Maximum _ 17,4 C 15,6 C 96 % 1022,4 hPa 0,2 l/m 2 min 2 min 2,0 UV-I 629 W/m 43,8 km/h
W (6 Bft)
Durchschnitt _ 11,9 C 10,3 C 78 % 1020,6 hPa #0,2 l/m #6:30 h #1:42 h 1,1 UV-I 263 W/m 15,2 km/h (3 Bft)
© 2014 W. Hausmann